EW6603 Weather Reports


time (UTC)temp
C
wind
direction
speed
KPH
gust
KPH
rain 1hr
cm
rain 24hr
cm
rain mn
cm
humidity
%
barometer
mb
20260507220829 14 29 1.6 3.2 0.00 0.36 0.20 76 1009.3
20260507220711 14 24 0.0 3.2 0.00 0.36 0.20 76 1009.3
20260507220624 14 31 0.0 3.2 0.00 0.36 0.20 76 1009.3
20260507220511 14 65 0.0 3.2 0.00 0.36 0.20 76 1009.3
20260507220419 14 65 0.0 3.2 0.00 0.36 0.20 75 1009.3
20260507220351 14 55 0.0 3.2 0.00 0.36 0.20 75 1009.2
20260507220220 14 49 0.0 3.2 0.00 0.36 0.20 75 1009.3
20260507220126 14 80 0.0 3.2 0.00 0.36 0.20 76 1009.2
20260507220100 14 95 0.0 3.2 0.00 0.36 0.20 76 1009.0
20260507220012 15 95 0.0 3.2 0.00 0.36 0.20 75 1009.2
20260507215914 14 90 0.0 3.2 0.00 0.36 0.20 75 1009.2
20260507215821 15 290 0.0 3.2 0.00 0.36 0.20 75 1009.2
20260507215712 15 40 0.0 3.2 0.00 0.36 0.20 75 1009.2
20260507215625 15 32 0.0 3.2 0.00 0.36 0.20 75 1009.2
20260507215512 15 26 0.0 1.6 0.00 0.36 0.20 78 1009.3
20260507215418 15 355 0.0 1.6 0.00 0.36 0.20 78 1009.3
20260507215325 15 105 0.0 1.6 0.00 0.36 0.20 77 1009.4
20260507215211 15 105 0.0 1.6 0.00 0.36 0.20 76 1009.4
20260507215130 15 86 0.0 1.6 0.00 0.36 0.20 76 1009.4
20260507215013 15 335 0.0 1.6 0.00 0.36 0.20 76 1009.4
20260507214919 15 66 0.0 3.2 0.00 0.36 0.20 78 1009.4
20260507214826 15 46 0.0 3.2 0.00 0.36 0.20 79 1009.4
20260507214712 15 38 0.0 3.2 0.00 0.36 0.20 79 1009.4
20260507214624 15 38 0.0 3.2 0.00 0.36 0.20 78 1009.4
20260507214514 15 38 0.0 3.2 0.00 0.36 0.20 77 1009.4
20260507214503 14 38 0.0 3.2 0.00 0.36 0.20 77 1009.1
20260507214419 15 48 0.0 3.2 0.00 0.36 0.20 77 1009.4
20260507214325 15 48 0.0 3.2 0.00 0.36 0.20 78 1009.4
20260507214211 15 310 0.0 3.2 0.00 0.36 0.20 77 1009.4
20260507214118 15 31 0.0 3.2 0.00 0.36 0.20 77 1009.4
20260507214009 15 346 0.0 1.6 0.00 0.36 0.20 77 1009.4
20260507213922 15 346 0.0 4.8 0.00 0.36 0.20 77 1009.4
20260507213809 15 13 0.0 4.8 0.00 0.36 0.20 78 1009.3
20260507213714 15 66 0.0 4.8 0.00 0.36 0.20 78 1009.4
20260507213620 15 34 0.0 4.8 0.00 0.36 0.20 78 1009.4
20260507213511 15 36 0.0 4.8 0.00 0.36 0.20 77 1009.4
20260507213444 15 67 0.0 4.8 0.00 0.36 0.20 78 1009.4
20260507213309 15 10 0.0 4.8 0.00 0.36 0.20 78 1009.3
20260507213216 15 121 0.0 4.8 0.00 0.36 0.20 76 1009.3
20260507213122 15 38 0.0 4.8 0.00 0.36 0.20 77 1009.3
20260507213035 15 355 0.0 3.2 0.00 0.36 0.20 77 1009.3
20260507213027 15 329 0.0 3.2 0.00 0.36 0.20 77 1009.0
20260507212921 15 336 0.0 3.2 0.00 0.36 0.20 76 1009.4
20260507212824 15 283 0.0 3.2 0.00 0.36 0.20 78 1009.4
20260507212729 15 42 0.0 3.2 0.00 0.36 0.20 78 1009.3
20260507212616 15 45 0.0 4.8 0.00 0.36 0.20 76 1009.2
20260507212548 15 11 0.0 4.8 0.00 0.36 0.20 76 1009.2
20260507212421 15 251 0.0 4.8 0.00 0.36 0.20 76 1009.2
20260507212330 15 302 0.0 4.8 0.00 0.36 0.20 76 1009.3
20260507212212 15 303 0.0 4.8 0.00 0.36 0.20 76 1009.2
20260507212119 15 149 0.0 4.8 0.00 0.36 0.20 75 1009.2
20260507212048 15 182 0.0 4.8 0.00 0.36 0.20 75 1009.3
20260507211914 15 27 0.0 4.8 0.00 0.36 0.20 75 1009.2
20260507211821 15 322 0.0 4.8 0.00 0.36 0.20 77 1009.2
20260507211711 15 73 0.0 0.0 0.00 0.36 0.20 76 1009.2
20260507211617 15 107 0.0 0.0 0.00 0.36 0.20 76 1009.2
20260507211529 15 101 0.0 0.0 0.00 0.36 0.20 75 1009.2
20260507211512 15 96 0.0 0.0 0.00 0.36 0.20 77 1009.0
20260507211411 15 24 0.0 0.0 0.00 0.36 0.20 77 1009.2
20260507211317 15 255 0.0 0.0 0.00 0.36 0.20 77 1009.2
20260507211250 15 255 0.0 0.0 0.00 0.36 0.20 76 1009.2
20260507211116 15 255 0.0 0.0 0.00 0.36 0.20 75 1009.2
20260507211023 15 317 0.0 1.6 0.00 0.36 0.20 76 1009.2
20260507210921 15 360 0.0 6.4 0.00 0.36 0.20 76 1009.2
20260507210828 15 5 0.0 6.4 0.00 0.36 0.20 76 1009.2
20260507210715 15 9 0.0 6.4 0.00 0.36 0.20 77 1009.2
20260507210628 15 346 0.0 6.4 0.00 0.36 0.20 76 1009.2
20260507210518 15 326 0.0 6.4 0.00 0.36 0.20 75 1009.2
20260507210425 15 21 0.0 6.4 0.00 0.36 0.20 76 1009.2
20260507210312 15 276 1.6 6.4 0.00 0.36 0.20 78 1009.2
20260507210214 15 261 1.6 6.4 0.00 0.36 0.20 75 1009.2
20260507210147 15 316 1.6 6.4 0.00 0.36 0.20 75 1009.2
20260507210057 15 328 0.0 4.8 0.00 0.36 0.20 75 1008.8
20260507210013 15 324 0.0 4.8 0.00 0.36 0.20 75 1009.2
20260507205920 15 101 0.0 4.8 0.00 0.36 0.20 75 1009.2
20260507205816 15 92 0.0 4.8 0.00 0.36 0.20 75 1009.2
20260507205746 15 345 0.0 4.8 0.00 0.36 0.20 75 1009.2
20260507205658 15 331 0.0 4.8 0.00 0.36 0.20 76 1009.2
20260507205516 15 78 0.0 1.6 0.00 0.36 0.20 76 1009.1
20260507205416 15 70 0.0 1.6 0.00 0.36 0.20 76 1009.2
20260507205327 15 37 0.0 1.6 0.00 0.36 0.20 75 1009.2
20260507205213 15 44 0.0 1.6 0.00 0.36 0.20 76 1009.2
20260507205146 15 48 0.0 1.6 0.00 0.36 0.20 77 1009.2
20260507205058 15 53 0.0 6.4 0.00 0.36 0.20 75 1009.3
20260507204940 15 78 0.0 6.4 0.00 0.36 0.20 76 1009.3
20260507204822 15 52 0.0 6.4 0.00 0.36 0.20 75 1009.3
20260507204734 15 355 0.0 6.4 0.00 0.36 0.20 75 1009.4
20260507204632 15 20 0.0 6.4 0.00 0.36 0.20 77 1009.3
20260507204531 15 35 0.0 6.4 0.00 0.36 0.20 77 1009.0
20260507204521 15 46 0.0 6.4 0.00 0.36 0.20 79 1009.3
20260507204434 15 41 0.0 6.4 0.00 0.36 0.20 77 1009.3
20260507204320 15 45 0.0 6.4 0.00 0.36 0.20 76 1009.2
20260507204226 15 88 0.0 6.4 0.00 0.36 0.20 76 1009.2
20260507204133 15 79 0.0 0.0 0.00 0.36 0.20 77 1009.1
20260507204024 15 29 0.0 6.4 0.00 0.36 0.20 77 1009.1
20260507203914 15 194 0.0 6.4 0.00 0.36 0.20 77 1009.2
20260507203830 15 194 0.0 6.4 0.00 0.36 0.20 77 1009.2
20260507203743 15 284 0.0 6.4 0.00 0.36 0.20 77 1009.3
20260507203627 15 306 0.0 6.4 0.00 0.36 0.20 77 1009.3
20260507203513 15 336 0.0 6.4 0.00 0.36 0.20 78 1009.3
20260507203420 15 269 0.0 6.4 0.00 0.36 0.20 79 1009.3
20260507203357 15 273 1.6 6.4 0.00 0.36 0.20 79 1009.3
20260507203216 15 19 1.6 6.4 0.00 0.36 0.20 77 1009.3
20260507203142 15 355 0.0 0.0 0.00 0.36 0.20 79 1009.3
20260507203032 15 86 0.0 0.0 0.00 0.36 0.20 77 1009.3
20260507203023 15 86 0.0 0.0 0.00 0.36 0.20 77 1009.0
20260507202918 15 61 0.0 0.0 0.00 0.36 0.20 77 1009.3
20260507202845 15 103 0.0 1.6 0.00 0.36 0.20 78 1009.3
20260507202714 15 308 0.0 6.4 0.00 0.36 0.20 78 1009.4
20260507202628 15 17 0.0 6.4 0.00 0.36 0.20 77 1009.4
20260507202534 15 321 0.0 6.4 0.00 0.36 0.20 78 1009.4
20260507202456 15 317 0.0 6.4 0.00 0.36 0.20 77 1009.4
20260507202314 15 301 0.0 6.4 0.00 0.36 0.20 78 1009.5
20260507202227 15 297 0.0 6.4 0.00 0.36 0.20 78 1009.5
20260507202134 15 74 0.0 6.4 0.00 0.36 0.20 77 1009.5
20260507202024 15 150 0.0 6.4 0.00 0.36 0.20 76 1009.5
20260507201910 15 227 0.0 6.4 0.00 0.36 0.20 79 1009.5
20260507201823 15 306 0.0 0.0 0.00 0.36 0.20 77 1009.5
20260507201729 15 298 0.0 0.0 0.00 0.36 0.20 77 1009.5
20260507201616 15 37 0.0 0.0 0.00 0.36 0.20 79 1009.6
20260507201555 15 344 0.0 0.0 0.00 0.36 0.20 79 1009.2
20260507201527 15 344 0.0 0.0 0.00 0.36 0.20 78 1009.6
20260507201423 15 5 0.0 0.0 0.00 0.36 0.20 78 1009.6
20260507201351 15 321 0.0 0.0 0.00 0.36 0.20 79 1009.6
20260507201210 15 97 0.0 0.0 0.00 0.36 0.20 78 1009.6
20260507201143 15 97 0.0 0.0 0.00 0.36 0.20 78 1009.6
20260507201044 15 97 0.0 0.0 0.00 0.36 0.20 76 1009.6
20260507200933 15 91 0.0 0.0 0.00 0.36 0.20 76 1009.7
20260507200816 15 184 0.0 0.0 0.00 0.36 0.20 76 1009.6
20260507200723 15 123 0.0 1.6 0.00 0.36 0.20 76 1009.6
20260507200622 15 234 0.0 1.6 0.00 0.36 0.20 76 1009.6
20260507200552 15 5 0.0 1.6 0.00 0.36 0.20 77 1009.6
20260507200410 15 38 0.0 1.6 0.00 0.36 0.20 80 1009.6
20260507200317 15 33 0.0 1.6 0.00 0.36 0.20 79 1009.6
20260507200250 15 301 0.0 3.2 0.00 0.36 0.20 77 1009.6
20260507200139 15 330 0.0 4.8 0.00 0.36 0.20 78 1009.6
20260507200047 14 69 0.0 4.8 0.00 0.36 0.20 77 1009.2
20260507200024 15 69 0.0 4.8 0.00 0.36 0.20 77 1009.6
20260507195911 15 80 0.0 4.8 0.00 0.36 0.20 77 1009.6
20260507195824 14 302 0.0 4.8 0.00 0.36 0.20 77 1009.6
20260507195730 14 97 0.0 4.8 0.00 0.36 0.20 77 1009.6
20260507195642 14 309 0.0 4.8 0.00 0.36 0.20 78 1009.6
20260507195512 14 90 0.0 4.8 0.00 0.36 0.20 78 1009.6
20260507195418 14 90 1.6 4.8 0.00 0.36 0.20 77 1009.6
20260507195325 14 98 1.6 4.8 0.00 0.36 0.20 77 1009.5
20260507195212 14 101 0.0 0.0 0.00 0.36 0.20 77 1009.6
20260507195119 14 5 0.0 0.0 0.00 0.36 0.20 77 1009.7
20260507195028 14 306 0.0 0.0 0.00 0.36 0.20 77 1009.7
20260507194920 14 49 0.0 0.0 0.00 0.36 0.20 78 1009.7
20260507194826 14 33 0.0 0.0 0.00 0.36 0.20 78 1009.7
20260507194731 14 33 0.0 0.0 0.00 0.36 0.20 77 1009.9
20260507194644 14 305 0.0 0.0 0.00 0.36 0.20 76 1009.9
20260507194546 13 305 0.0 0.0 0.00 0.36 0.20 76 1009.6
20260507194518 14 305 0.0 0.0 0.00 0.36 0.20 76 1009.9
20260507194452 14 305 0.0 0.0 0.00 0.38 0.20 76 1009.9
20260507194317 14 5 0.0 0.0 0.00 0.38 0.20 75 1009.9
20260507194227 14 317 0.0 0.0 0.00 0.38 0.20 75 1010.0
20260507194114 14 22 0.0 0.0 0.00 0.38 0.20 78 1010.0
20260507194044 14 315 0.0 0.0 0.00 0.38 0.20 75 1010.0
20260507193919 14 279 0.0 0.0 0.00 0.38 0.20 77 1010.0
20260507193825 14 38 0.0 0.0 0.00 0.38 0.20 77 1010.0
20260507193715 14 40 0.0 0.0 0.00 0.38 0.20 78 1009.9
20260507193622 14 23 0.0 0.0 0.00 0.38 0.20 77 1009.9
20260507193555 14 49 0.0 0.0 0.00 0.38 0.20 78 1009.9
20260507193420 14 73 0.0 0.0 0.00 0.38 0.20 79 1009.9
20260507193327 14 192 0.0 0.0 0.00 0.38 0.20 79 1009.9
20260507193213 14 18 0.0 0.0 0.00 0.38 0.20 77 1009.9
20260507193124 14 25 0.0 0.0 0.00 0.38 0.20 76 1009.9
20260507193033 13 55 0.0 0.0 0.00 0.38 0.20 76 1009.6
20260507193010 14 57 0.0 0.0 0.00 0.38 0.20 78 1010.0
20260507192923 14 57 0.0 0.0 0.00 0.38 0.20 77 1010.0
20260507192830 14 79 0.0 0.0 0.00 0.38 0.20 76 1010.1
20260507192711 14 71 0.0 0.0 0.00 0.38 0.20 76 1010.1
20260507192618 14 296 0.0 0.0 0.00 0.38 0.20 77 1010.1
20260507192509 14 296 0.0 0.0 0.00 0.38 0.20 79 1010.2
20260507192422 14 296 0.0 0.0 0.00 0.38 0.20 79 1010.2
20260507192309 14 296 0.0 0.0 0.00 0.38 0.20 76 1010.2
20260507192215 14 298 0.0 0.0 0.00 0.38 0.20 77 1010.2
20260507192121 14 306 0.0 0.0 0.00 0.38 0.20 77 1010.2
20260507192011 14 306 0.0 0.0 0.00 0.38 0.20 77 1010.2
20260507191944 14 306 0.0 0.0 0.00 0.38 0.20 76 1010.2
20260507191824 14 295 0.0 0.0 0.00 0.38 0.20 75 1010.2
20260507191738 14 292 0.0 0.0 0.00 0.38 0.20 76 1010.2
20260507191614 14 315 0.0 0.0 0.00 0.38 0.20 78 1010.2
20260507191527 14 360 0.0 0.0 0.00 0.38 0.20 78 1010.2
20260507191508 14 79 0.0 0.0 0.00 0.38 0.20 78 1009.8
20260507191417 14 34 0.0 0.0 0.00 0.38 0.20 78 1010.1
20260507191324 14 5 0.0 0.0 0.00 0.38 0.20 77 1010.1
20260507191210 14 5 0.0 0.0 0.00 0.38 0.20 79 1010.1
20260507191117 14 294 0.0 1.6 0.00 0.38 0.20 78 1010.1
20260507191030 14 294 0.0 1.6 0.00 0.38 0.20 76 1010.1
20260507190933 14 294 0.0 1.6 0.00 0.38 0.20 76 1010.1
20260507190836 15 37 0.0 1.6 0.00 0.38 0.20 76 1010.2
20260507190722 15 73 0.0 1.6 0.00 0.38 0.20 79 1010.2
20260507190635 15 61 0.0 1.6 0.00 0.38 0.20 77 1010.3
20260507190521 15 38 0.0 1.6 0.00 0.38 0.20 76 1010.3
20260507190428 15 58 0.0 1.6 0.00 0.38 0.20 76 1010.3
20260507190315 15 45 0.0 1.6 0.00 0.38 0.20 76 1010.3
20260507190226 15 20 0.0 1.6 0.00 0.38 0.20 76 1010.3
20260507190136 15 154 0.0 1.6 0.00 0.38 0.20 76 1010.4
20260507190024 14 202 0.0 3.2 0.00 0.38 0.20 76 1010.1
20260507190014 15 202 0.0 3.2 0.00 0.38 0.20 76 1010.4
20260507185927 15 195 0.0 3.2 0.00 0.38 0.20 76 1010.4
20260507185815 15 195 0.0 3.2 0.00 0.38 0.20 77 1010.4
20260507185725 15 186 0.0 3.2 0.00 0.38 0.20 77 1010.4
20260507185612 15 96 0.0 3.2 0.00 0.38 0.20 76 1010.4
20260507185545 15 96 0.0 3.2 0.00 0.38 0.20 76 1010.4
20260507185410 15 94 0.0 4.8 0.00 0.38 0.20 78 1010.4
20260507185317 15 95 0.0 4.8 0.00 0.38 0.20 78 1010.4
20260507185223 15 84 0.0 4.8 0.00 0.38 0.20 79 1010.4
20260507185114 14 322 0.0 4.8 0.00 0.38 0.20 78 1010.3
20260507185021 14 31 0.0 4.8 0.00 0.38 0.20 79 1010.3
20260507184934 14 123 0.0 4.8 0.00 0.38 0.20 80 1010.4
20260507184841 14 116 0.0 4.8 0.00 0.38 0.20 77 1010.4
20260507184726 14 105 0.0 4.8 0.00 0.38 0.20 76 1010.5
20260507184639 14 124 0.0 4.8 0.00 0.38 0.20 76 1010.5
20260507184605 13 118 0.0 4.8 0.00 0.38 0.20 76 1010.1
20260507184528 14 203 0.0 4.8 0.00 0.38 0.20 78 1010.4
20260507184414 14 87 0.0 0.0 0.00 0.38 0.20 78 1010.5
20260507184321 14 247 0.0 0.0 0.00 0.38 0.20 81 1010.5
20260507184235 14 261 0.0 0.0 0.00 0.38 0.20 81 1010.5
20260507184140 14 44 0.0 0.0 0.03 0.38 0.20 80 1010.5
20260507184026 13 53 0.0 0.0 0.03 0.38 0.20 80 1010.5
20260507183916 14 312 0.0 0.0 0.03 0.38 0.20 83 1010.6
20260507183849 14 80 0.0 0.0 0.03 0.38 0.20 84 1010.6
20260507183620 14 58 0.0 0.0 0.03 0.38 0.20 78 1010.5
20260507183533 14 49 0.0 0.0 0.03 0.38 0.20 79 1010.4
20260507183440 13 44 0.0 0.0 0.03 0.38 0.20 77 1010.4
20260507183309 14 44 0.0 0.0 0.03 0.38 0.20 77 1010.5
20260507183216 14 44 0.0 0.0 0.03 0.38 0.20 78 1010.5
20260507183122 13 44 0.0 0.0 0.03 0.38 0.20 81 1010.5
20260507183033 13 360 0.0 0.0 0.03 0.38 0.20 80 1010.2
20260507183009 13 360 0.0 0.0 0.03 0.38 0.20 80 1010.5
20260507182922 13 360 0.0 0.0 0.03 0.38 0.20 80 1010.5
20260507182809 13 277 0.0 0.0 0.03 0.38 0.20 80 1010.6
20260507182719 13 198 0.0 0.0 0.03 0.38 0.20 80 1010.6
20260507182625 13 198 0.0 0.0 0.03 0.38 0.20 81 1010.6
20260507182538 13 198 0.0 0.0 0.03 0.38 0.20 81 1010.5
20260507182423 13 198 0.0 0.0 0.03 0.38 0.20 82 1010.5
20260507182310 13 54 0.0 0.0 0.03 0.38 0.20 81 1010.5
20260507182236 13 54 0.0 0.0 0.03 0.38 0.20 80 1010.5
20260507182132 13 54 0.0 0.0 0.03 0.38 0.20 82 1010.5
20260507182018 13 75 0.0 0.0 0.03 0.38 0.20 81 1010.5
20260507181945 13 105 0.0 0.0 0.03 0.38 0.20 85 1010.5
20260507181811 13 336 0.0 0.0 0.03 0.38 0.20 85 1010.6
20260507181724 13 336 0.0 0.0 0.03 0.38 0.20 83 1010.6
20260507181611 13 336 0.0 0.0 0.03 0.38 0.20 83 1010.6
20260507181601 13 336 0.0 0.0 0.03 0.38 0.20 84 1010.3
20260507181520 13 336 0.0 0.0 0.03 0.38 0.20 84 1010.6
20260507181428 13 336 0.0 0.0 0.03 0.38 0.20 84 1010.6
20260507181315 13 336 0.0 0.0 0.03 0.38 0.20 84 1010.7
20260507181247 13 336 0.0 0.0 0.03 0.38 0.20 84 1010.7
20260507181112 13 336 0.0 0.0 0.03 0.38 0.20 83 1010.7
20260507181029 13 336 0.0 0.0 0.03 0.38 0.20 83 1010.7
20260507180917 13 336 0.0 0.0 0.03 0.38 0.20 83 1010.4
20260507180848 13 336 0.0 0.0 0.03 0.38 0.20 82 1010.4
20260507180710 13 15 0.0 0.0 0.03 0.38 0.20 84 1010.4
20260507180643 13 21 0.0 0.0 0.03 0.38 0.20 84 1010.5
20260507180538 13 32 0.0 0.0 0.03 0.38 0.20 81 1010.5
20260507180432 13 61 0.0 0.0 0.03 0.38 0.20 84 1010.7
20260507180331 13 68 0.0 0.0 0.03 0.38 0.20 82 1010.9
20260507180231 13 22 0.0 0.0 0.03 0.38 0.20 83 1011.0
20260507180124 13 239 0.0 0.0 0.03 0.38 0.20 81 1011.0
20260507180116 13 239 0.0 0.0 0.03 0.38 0.20 81 1010.7
20260507180050 13 239 0.0 0.0 0.03 0.38 0.20 81 1011.0
20260507175914 13 239 0.0 0.0 0.03 0.38 0.20 81 1011.0
20260507175821 13 239 0.0 0.0 0.03 0.38 0.20 82 1011.0
20260507175734 13 239 0.0 0.0 0.03 0.38 0.20 82 1010.9
20260507175625 13 235 0.0 0.0 0.03 0.38 0.20 83 1010.9
20260507175509 13 43 0.0 0.0 0.03 0.38 0.20 83 1010.8
20260507175415 13 5 0.0 0.0 0.03 0.38 0.20 84 1010.8
20260507175322 13 35 0.0 0.0 0.03 0.38 0.20 83 1010.8
20260507175228 13 13 0.0 0.0 0.03 0.38 0.20 83 1010.8
20260507175115 13 46 0.0 0.0 0.03 0.38 0.20 84 1010.8
20260507175033 13 29 0.0 0.0 0.03 0.38 0.20 83 1010.7
20260507174917 13 360 0.0 0.0 0.03 0.38 0.20 83 1010.7
20260507174824 13 360 0.0 0.0 0.03 0.38 0.20 83 1010.7
20260507174737 13 360 0.0 0.0 0.03 0.38 0.20 83 1010.7
20260507174622 13 360 0.0 0.0 0.03 0.38 0.20 85 1010.7
20260507174604 13 360 0.0 0.0 0.03 0.38 0.20 83 1010.4
20260507174529 13 360 0.0 0.0 0.03 0.38 0.20 83 1010.8
20260507174445 13 360 0.0 0.0 0.03 0.38 0.20 82 1010.8
20260507174330 13 360 0.0 0.0 0.03 0.38 0.20 81 1010.5
20260507174216 13 360 0.0 0.0 0.00 0.36 0.18 82 1010.7
20260507174122 13 27 0.0 0.0 0.00 0.36 0.18 81 1010.7
20260507174009 13 289 0.0 0.0 0.00 0.36 0.18 81 1011.1
20260507173922 13 289 0.0 0.0 0.00 0.36 0.18 80 1011.1
20260507173833 13 289 0.0 0.0 0.00 0.36 0.18 80 1011.2
20260507173719 13 289 0.0 0.0 0.00 0.36 0.18 79 1011.2
20260507173632 13 289 0.0 0.0 0.00 0.36 0.18 79 1011.2
20260507173518 13 251 0.0 0.0 0.00 0.36 0.18 79 1011.2
20260507173425 13 251 0.0 0.0 0.00 0.36 0.18 80 1011.0
20260507173331 13 251 0.0 0.0 0.00 0.36 0.18 82 1011.0
20260507173243 13 251 0.0 0.0 0.00 0.36 0.18 81 1011.0
20260507173133 13 251 0.0 0.0 0.00 0.36 0.18 80 1011.0
20260507173034 13 251 0.0 0.0 0.00 0.36 0.18 79 1010.6
20260507173018 13 251 0.0 0.0 0.00 0.36 0.18 79 1011.0
20260507172931 13 251 0.0 0.0 0.00 0.36 0.18 77 1011.0
20260507172817 13 236 0.0 0.0 0.00 0.36 0.18 79 1011.0
20260507172745 13 180 0.0 0.0 0.00 0.36 0.18 78 1011.1
20260507172637 14 174 0.0 0.0 0.00 0.36 0.18 78 1011.1
20260507172526 13 176 0.0 0.0 0.00 0.36 0.18 79 1011.1
20260507172413 13 92 0.0 0.0 0.00 0.36 0.18 77 1011.1
20260507172318 14 111 0.0 0.0 0.00 0.36 0.18 78 1011.1
20260507172224 13 111 0.0 0.0 0.00 0.36 0.18 78 1011.1
20260507172110 14 177 0.0 0.0 0.00 0.36 0.18 80 1011.1
20260507172023 14 177 0.0 0.0 0.00 0.36 0.18 80 1011.1
20260507171913 13 67 0.0 0.0 0.00 0.36 0.18 79 1011.1
20260507171820 14 184 0.0 0.0 0.00 0.36 0.18 80 1011.1
20260507171723 13 184 0.0 0.0 0.00 0.36 0.18 79 1011.1
20260507171610 14 184 0.0 0.0 0.00 0.36 0.18 79 1011.1
20260507171525 13 184 0.0 0.0 0.00 0.36 0.18 79 1010.7
20260507171512 14 184 0.0 0.0 0.00 0.36 0.18 79 1011.1
20260507171429 14 184 0.0 0.0 0.00 0.36 0.18 80 1011.1
20260507171316 14 205 0.0 0.0 0.00 0.36 0.18 81 1011.1
20260507171223 13 205 0.0 0.0 0.00 0.36 0.18 83 1011.1
20260507171109 13 205 0.0 0.0 0.00 0.36 0.18 80 1011.1
20260507171042 13 205 0.0 0.0 0.00 0.36 0.18 83 1011.1
20260507170927 13 205 0.0 0.0 0.00 0.36 0.18 83 1011.2
20260507170818 13 205 0.0 0.0 0.00 0.36 0.18 81 1011.2
20260507170724 13 205 0.0 0.0 0.00 0.36 0.18 82 1011.2
20260507170611 13 205 0.0 0.0 0.00 0.36 0.18 81 1011.2
20260507170517 13 218 0.0 0.0 0.00 0.36 0.18 79 1011.2
20260507170430 13 209 0.0 0.0 0.00 0.36 0.18 81 1011.3
20260507170333 13 275 0.0 0.0 0.00 0.36 0.18 80 1011.3
20260507170222 13 289 0.0 0.0 0.00 0.36 0.18 81 1011.3
20260507170135 13 256 0.0 0.0 0.00 0.36 0.18 81 1011.3
20260507170059 13 256 0.0 0.0 0.00 0.36 0.18 81 1010.9
20260507170021 13 256 0.0 0.0 0.00 0.36 0.18 80 1011.3
20260507165928 13 256 0.0 0.0 0.00 0.36 0.18 80 1011.3
20260507165815 13 256 0.0 0.0 0.00 0.36 0.18 80 1011.4
20260507165721 13 256 0.0 0.0 0.00 0.36 0.18 79 1011.4
20260507165638 13 256 0.0 0.0 0.00 0.36 0.18 78 1011.4
20260507165524 13 254 0.0 0.0 0.00 0.36 0.18 79 1011.5
20260507165431 13 254 0.0 0.0 0.00 0.36 0.18 78 1011.6
20260507165323 13 254 0.0 0.0 0.00 0.36 0.18 79 1011.6
20260507165210 13 206 0.0 0.0 0.00 0.36 0.18 78 1011.7
20260507165116 13 198 0.0 0.0 0.00 0.36 0.18 77 1011.7
20260507165053 13 198 0.0 0.0 0.00 0.36 0.18 78 1011.7
20260507164918 13 140 0.0 0.0 0.00 0.36 0.18 79 1011.7
20260507164824 13 58 0.0 0.0 0.00 0.36 0.18 81 1011.6
20260507164711 13 327 0.0 0.0 0.00 0.36 0.18 80 1011.6
20260507164618 13 198 0.0 0.0 0.00 0.36 0.18 81 1011.6
20260507164553 13 198 0.0 0.0 0.00 0.36 0.18 81 1011.1
20260507164524 13 198 0.0 0.0 0.00 0.36 0.18 81 1011.5
20260507164442 13 225 0.0 0.0 0.00 0.36 0.18 80 1011.5
20260507164327 13 251 0.0 0.0 0.00 0.36 0.18 81 1011.5
20260507164234 13 227 0.0 0.0 0.00 0.36 0.18 81 1011.5
20260507164126 13 227 0.0 0.0 0.00 0.36 0.18 80 1011.5
20260507164032 13 269 0.0 0.0 0.03 0.36 0.18 82 1011.6
20260507163944 13 269 0.0 0.0 0.03 0.36 0.18 83 1011.6
20260507163814 13 268 0.0 0.0 0.03 0.36 0.18 82 1011.7
20260507163721 13 233 0.0 0.0 0.03 0.36 0.18 81 1011.7
20260507163628 13 234 0.0 0.0 0.03 0.36 0.18 81 1011.7
20260507163514 13 244 0.0 0.0 0.03 0.36 0.18 82 1011.7
20260507163420 13 9 0.0 0.0 0.03 0.36 0.18 83 1011.7
20260507163334 13 63 0.0 0.0 0.03 0.36 0.18 83 1011.7
20260507163244 13 55 0.0 0.0 0.03 0.36 0.18 81 1011.7
20260507163109 13 186 0.0 0.0 0.03 0.36 0.18 81 1011.7
20260507163042 13 184 0.0 0.0 0.03 0.36 0.18 81 1011.7
20260507163009 12 59 0.0 0.0 0.03 0.36 0.18 81 1011.4
20260507162928 13 49 0.0 0.0 0.03 0.36 0.18 81 1011.8
20260507162815 13 140 0.0 0.0 0.03 0.36 0.18 81 1011.8
20260507162721 13 140 0.0 0.0 0.03 0.36 0.18 81 1011.8
20260507162612 13 217 0.0 0.0 0.03 0.36 0.18 81 1011.8
20260507162545 13 217 0.0 0.0 0.03 0.36 0.18 82 1011.8
20260507162410 13 217 0.0 0.0 0.03 0.36 0.18 82 1011.8
20260507162337 13 234 0.0 0.0 0.03 0.36 0.18 82 1011.8
20260507162229 13 273 0.0 0.0 0.03 0.36 0.18 82 1011.8
20260507162116 13 204 0.0 0.0 0.03 0.36 0.18 83 1011.9
20260507162027 13 127 0.0 0.0 0.03 0.36 0.18 83 1011.9
20260507161913 13 203 0.0 0.0 0.03 0.36 0.18 82 1011.9
20260507161820 13 296 0.0 0.0 0.03 0.36 0.18 81 1011.9
20260507161727 13 13 0.0 0.0 0.03 0.36 0.18 82 1011.9
20260507161614 13 22 0.0 0.0 0.03 0.36 0.18 82 1012.0
20260507161527 13 331 0.0 0.0 0.03 0.36 0.18 84 1012.0
20260507161510 12 327 0.0 0.0 0.03 0.36 0.18 84 1011.6
20260507161417 12 317 0.0 0.0 0.03 0.36 0.18 86 1011.9
20260507161343 12 232 0.0 0.0 0.03 0.36 0.18 86 1011.9
20260507161235 12 232 0.0 0.0 0.03 0.36 0.18 86 1011.9
20260507161141 12 232 0.0 1.6 0.03 0.36 0.18 86 1011.9
20260507161027 12 232 0.0 1.6 0.03 0.36 0.18 84 1012.0
20260507160933 12 232 0.0 1.6 0.03 0.36 0.18 86 1012.1
20260507160810 12 151 0.0 1.6 0.03 0.36 0.18 86 1012.1
20260507160715 12 151 0.0 3.2 0.03 0.36 0.18 85 1012.2
20260507160620 12 192 0.0 3.2 0.03 0.36 0.18 85 1012.2
20260507160527 12 72 0.0 3.2 0.03 0.36 0.18 85 1012.2
20260507160414 12 268 0.0 3.2 0.03 0.36 0.18 85 1012.2
20260507160327 12 268 0.0 3.2 0.03 0.36 0.18 85 1012.2
20260507160217 12 123 0.0 3.2 0.03 0.36 0.18 85 1012.3
20260507160124 12 123 0.0 3.2 0.03 0.36 0.18 85 1012.3
20260507160057 12 123 0.0 3.2 0.03 0.36 0.18 84 1012.2
20260507160034 12 123 0.0 3.2 0.03 0.36 0.18 84 1011.9
20260507155940 12 123 0.0 3.2 0.03 0.36 0.18 86 1012.3
20260507155825 12 296 0.0 0.0 0.03 0.36 0.18 86 1012.3
20260507155712 12 334 0.0 0.0 0.03 0.36 0.18 85 1012.4
20260507155649 12 306 0.0 0.0 0.03 0.36 0.18 87 1012.4
20260507155535 12 306 0.0 0.0 0.03 0.36 0.18 85 1012.5
20260507155420 12 306 0.0 0.0 0.03 0.36 0.18 85 1012.5
20260507155333 12 306 0.0 0.0 0.03 0.36 0.18 86 1012.4
20260507155239 12 306 0.0 0.0 0.03 0.36 0.18 85 1012.4
20260507155125 12 23 0.0 0.0 0.03 0.36 0.18 86 1012.4
20260507155016 12 37 0.0 0.0 0.03 0.36 0.18 85 1012.3
20260507154929 12 37 0.0 0.0 0.03 0.36 0.18 85 1012.3
20260507154836 12 37 0.0 0.0 0.03 0.36 0.18 85 1012.3
20260507154741 12 87 0.0 0.0 0.03 0.36 0.18 86 1012.3
20260507154634 12 260 0.0 0.0 0.03 0.36 0.18 86 1012.3
20260507154519 12 151 0.0 0.0 0.03 0.36 0.18 86 1012.3
20260507154502 12 151 0.0 0.0 0.03 0.36 0.18 86 1012.0
20260507154409 12 151 0.0 0.0 0.03 0.36 0.18 86 1012.3
20260507154315 12 151 0.0 0.0 0.03 0.36 0.18 87 1012.3
20260507154222 12 151 0.0 0.0 0.03 0.36 0.18 87 1012.3
20260507154135 12 151 0.0 0.0 0.00 0.33 0.15 86 1012.2
20260507154022 12 151 0.0 0.0 0.00 0.33 0.15 86 1012.2
20260507153927 12 151 0.0 0.0 0.00 0.33 0.15 86 1012.2
20260507153817 12 151 0.0 0.0 0.00 0.33 0.15 87 1012.3
20260507153724 12 151 0.0 0.0 0.00 0.33 0.15 86 1012.3
20260507153611 12 151 0.0 0.0 0.00 0.33 0.15 84 1012.3
20260507153545 12 151 0.0 0.0 0.00 0.33 0.15 84 1012.3
20260507153409 12 232 0.0 0.0 0.00 0.33 0.15 82 1012.6
20260507153326 12 232 0.0 0.0 0.00 0.33 0.15 82 1012.6
20260507153214 12 234 0.0 0.0 0.00 0.33 0.15 82 1012.5
20260507153147 12 234 0.0 0.0 0.00 0.33 0.15 82 1012.5
20260507153057 12 234 0.0 0.0 0.00 0.33 0.15 82 1012.0
20260507153012 12 169 0.0 0.0 0.00 0.33 0.15 83 1012.2
20260507152938 12 256 0.0 0.0 0.00 0.33 0.15 83 1012.2
20260507152830 12 256 0.0 0.0 0.00 0.33 0.15 85 1012.1
20260507152716 12 322 0.0 0.0 0.00 0.33 0.15 84 1012.1
20260507152643 12 322 0.0 0.0 0.00 0.33 0.15 83 1012.1
20260507152512 12 329 0.0 0.0 0.00 0.33 0.15 83 1012.3
20260507152445 12 329 0.0 0.0 0.00 0.33 0.15 83 1012.3
20260507152311 12 70 0.0 0.0 0.00 0.33 0.15 83 1012.2
20260507152217 12 70 0.0 0.0 0.00 0.33 0.15 83 1012.2
20260507152130 12 70 0.0 0.0 0.00 0.33 0.15 83 1012.2
20260507152036 12 175 0.0 0.0 0.00 0.33 0.15 83 1012.0
20260507151922 12 195 0.0 0.0 0.00 0.33 0.15 83 1012.0
20260507151855 12 200 0.0 0.0 0.00 0.33 0.15 84 1012.1
20260507151721 12 200 0.0 0.0 0.00 0.33 0.15 86 1012.1
20260507151626 12 26 0.0 0.0 0.00 0.33 0.15 85 1012.0
20260507151550 12 26 0.0 0.0 0.00 0.33 0.15 85 1011.6
20260507151513 12 26 0.0 0.0 0.00 0.33 0.15 85 1012.0
20260507151419 12 5 0.0 0.0 0.00 0.33 0.15 85 1012.0
20260507151310 12 236 0.0 0.0 0.00 0.33 0.15 85 1012.0
20260507151223 12 236 0.0 0.0 0.00 0.33 0.15 85 1012.0
20260507151110 12 234 0.0 0.0 0.00 0.33 0.15 85 1011.8
20260507151015 12 229 0.0 0.0 0.00 0.33 0.15 85 1011.9
20260507150921 12 323 0.0 0.0 0.00 0.33 0.15 85 1011.9
20260507150811 12 323 0.0 0.0 0.00 0.33 0.15 83 1011.9
20260507150717 12 302 0.0 0.0 0.00 0.33 0.15 84 1011.9
20260507150629 12 302 0.0 0.0 0.00 0.33 0.15 84 1012.0
20260507150516 12 302 0.0 0.0 0.00 0.33 0.15 85 1012.1
20260507150422 12 302 0.0 0.0 0.00 0.33 0.15 85 1012.2
20260507150356 12 302 0.0 0.0 0.00 0.33 0.15 84 1012.3
20260507150226 12 302 0.0 0.0 0.00 0.33 0.15 84 1012.3
20260507150131 12 302 0.0 0.0 0.00 0.33 0.15 84 1012.3
20260507150107 12 302 0.0 0.0 0.00 0.33 0.15 84 1011.9
20260507150018 12 9 0.0 0.0 0.00 0.33 0.15 84 1012.2
20260507145923 12 9 0.0 0.0 0.00 0.33 0.15 84 1012.2
20260507145810 12 13 0.0 0.0 0.00 0.33 0.15 84 1012.2
20260507145720 12 256 0.0 0.0 0.00 0.33 0.15 84 1012.2
20260507145633 12 292 0.0 0.0 0.00 0.33 0.15 85 1012.2
20260507145520 12 148 0.0 0.0 0.00 0.33 0.15 85 1012.1
20260507145427 12 148 0.0 0.0 0.00 0.33 0.15 84 1012.1
20260507145312 12 148 0.0 0.0 0.00 0.33 0.15 84 1012.1
20260507145219 12 148 0.0 0.0 0.00 0.33 0.15 85 1012.1
20260507145109 12 275 0.0 1.6 0.00 0.33 0.15 85 1012.2
20260507145042 12 275 0.0 1.6 0.00 0.33 0.15 85 1012.2
20260507144917 12 275 0.0 1.6 0.00 0.33 0.15 85 1012.2
20260507144850 12 274 0.0 1.6 0.00 0.33 0.15 85 1012.3
20260507144716 12 205 0.0 1.6 0.00 0.33 0.15 85 1012.2
20260507144622 12 205 0.0 1.6 0.00 0.33 0.15 85 1012.2
20260507144554 12 205 0.0 1.6 0.00 0.33 0.15 85 1011.8
20260507144512 12 206 0.0 1.6 0.00 0.33 0.15 85 1012.2
20260507144415 12 206 0.0 4.8 0.00 0.33 0.15 85 1012.2
20260507144321 12 206 0.0 4.8 0.00 0.33 0.15 85 1012.2
20260507144234 12 207 0.0 4.8 0.00 0.33 0.15 85 1012.2
20260507144137 12 284 0.0 4.8 0.00 0.33 0.15 85 1012.3
20260507144022 12 284 0.0 4.8 0.00 0.33 0.15 86 1012.3
20260507143912 12 11 0.0 4.8 0.00 0.33 0.15 86 1012.4
20260507143845 12 45 0.0 4.8 0.00 0.33 0.15 86 1012.4
20260507143711 12 338 0.0 4.8 0.00 0.33 0.15 85 1012.4
20260507143617 12 338 0.0 4.8 0.00 0.33 0.15 85 1012.4
20260507143531 12 297 0.0 4.8 0.00 0.33 0.15 85 1012.4
20260507143437 12 320 0.0 0.0 0.00 0.33 0.15 86 1012.4
20260507143326 12 221 0.0 0.0 0.00 0.33 0.15 85 1012.4
20260507143213 12 173 0.0 0.0 0.00 0.33 0.15 86 1012.3
20260507143120 12 173 0.0 0.0 0.00 0.33 0.15 86 1012.3
20260507143033 12 173 0.0 0.0 0.00 0.33 0.15 86 1012.4
20260507143015 12 173 0.0 0.0 0.00 0.33 0.15 85 1012.1
20260507142919 12 173 0.0 0.0 0.00 0.33 0.15 85 1012.4
20260507142809 12 173 0.0 0.0 0.00 0.33 0.15 85 1012.5
20260507142716 12 173 0.0 0.0 0.00 0.33 0.15 85 1012.5
20260507142623 12 173 0.0 0.0 0.00 0.33 0.15 85 1012.5
20260507142510 12 267 0.0 0.0 0.00 0.33 0.15 86 1012.5
20260507142443 12 267 0.0 0.0 0.00 0.33 0.15 86 1012.5
20260507142329 12 251 0.0 0.0 0.00 0.33 0.15 85 1012.5
20260507142220 12 251 0.0 0.0 0.00 0.33 0.15 86 1012.5
20260507142122 12 251 0.0 0.0 0.00 0.33 0.15 86 1012.6
20260507142033 12 251 0.0 1.6 0.00 0.33 0.15 85 1012.5
20260507141918 12 251 0.0 1.6 0.00 0.33 0.15 85 1012.5
20260507141825 12 251 0.0 1.6 0.00 0.33 0.15 85 1012.5
20260507141712 12 251 0.0 1.6 0.00 0.33 0.15 84 1012.5
20260507141645 12 246 0.0 1.6 0.00 0.33 0.15 85 1012.5
20260507141602 12 189 0.0 1.6 0.00 0.33 0.15 85 1012.0
20260507141515 12 189 0.0 1.6 0.00 0.33 0.15 85 1012.4
20260507141421 12 189 0.0 1.6 0.00 0.33 0.15 85 1012.4
20260507141327 12 189 0.0 1.6 0.00 0.33 0.15 85 1012.4
20260507141213 12 189 0.0 1.6 0.00 0.33 0.15 85 1012.4
20260507141126 12 206 0.0 1.6 0.00 0.33 0.15 85 1012.4
20260507141017 12 220 0.0 1.6 0.00 0.33 0.15 85 1012.4
20260507140923 12 211 0.0 1.6 0.00 0.33 0.15 87 1012.5
20260507140809 12 49 0.0 1.6 0.00 0.33 0.15 86 1012.4
20260507140715 12 194 0.0 0.0 0.00 0.33 0.15 86 1012.4
20260507140621 12 194 0.0 0.0 0.00 0.33 0.15 87 1012.4
20260507140512 12 194 0.0 0.0 0.00 0.33 0.15 87 1012.5
20260507140425 12 194 0.0 0.0 0.00 0.33 0.15 87 1012.5
20260507140311 12 194 0.0 1.6 0.00 0.33 0.15 86 1012.6
20260507140218 12 194 0.0 1.6 0.00 0.33 0.15 85 1012.6
20260507140124 12 147 0.0 1.6 0.00 0.33 0.15 85 1012.6
20260507140038 12 147 0.0 1.6 0.00 0.33 0.15 85 1012.3
20260507140010 12 121 0.0 1.6 0.00 0.33 0.15 85 1012.7
20260507135947 12 220 0.0 1.6 0.00 0.33 0.15 85 1012.7
20260507135812 12 213 0.0 1.6 0.00 0.33 0.15 85 1012.8
20260507135719 12 213 0.0 1.6 0.00 0.33 0.15 86 1012.8
20260507135652 12 213 0.0 1.6 0.00 0.33 0.15 85 1012.8
20260507135517 12 71 0.0 1.6 0.00 0.33 0.15 86 1012.8
20260507135424 12 286 0.0 1.6 0.00 0.33 0.15 86 1012.7
20260507135311 12 272 0.0 1.6 0.00 0.33 0.15 86 1012.7
20260507135218 12 311 0.0 1.6 0.00 0.33 0.15 87 1012.7
20260507135131 12 311 0.0 1.6 0.00 0.33 0.15 87 1012.6
20260507135019 12 278 0.0 1.6 0.00 0.33 0.15 86 1012.6
20260507134924 12 186 0.0 1.6 0.00 0.33 0.15 87 1012.5
20260507134814 12 257 0.0 0.0 0.00 0.33 0.15 87 1012.6
20260507134721 12 210 0.0 0.0 0.00 0.33 0.15 87 1012.6
20260507134627 12 164 0.0 0.0 0.00 0.33 0.15 87 1012.5
20260507134540 12 111 0.0 1.6 0.00 0.33 0.15 87 1012.6
20260507134511 12 238 0.0 1.6 0.00 0.38 0.15 87 1012.2
20260507134425 12 238 0.0 1.6 0.00 0.38 0.15 87 1012.6
20260507134311 12 238 0.0 1.6 0.00 0.38 0.15 87 1012.7
20260507134222 12 238 0.0 1.6 0.00 0.38 0.15 87 1012.7
20260507134109 12 238 0.0 1.6 0.00 0.38 0.15 87 1012.7
20260507134015 12 238 0.0 1.6 0.00 0.38 0.15 87 1012.7
20260507133927 12 238 0.0 1.6 0.00 0.38 0.15 86 1012.7
20260507133814 12 238 0.0 1.6 0.00 0.38 0.15 86 1012.9
20260507133717 12 243 0.0 1.6 0.00 0.38 0.15 87 1012.9
20260507133655 12 238 0.0 0.0 0.00 0.38 0.15 87 1012.9
20260507133519 12 38 0.0 0.0 0.00 0.38 0.15 87 1012.9
20260507133446 12 302 0.0 1.6 0.00 0.38 0.15 87 1012.9
20260507133338 12 279 0.0 1.6 0.00 0.38 0.15 87 1012.9
20260507133238 12 279 0.0 1.6 0.00 0.38 0.15 87 1012.9
20260507133211 12 297 0.0 1.6 0.00 0.38 0.15 87 1012.8
20260507133027 12 319 0.0 1.6 0.00 0.38 0.15 87 1012.3
20260507133014 12 319 0.0 1.6 0.00 0.38 0.15 87 1012.8
20260507132929 12 319 0.0 1.6 0.00 0.38 0.15 87 1012.8
20260507132814 12 319 0.0 1.6 0.00 0.38 0.15 87 1012.7
20260507132721 12 319 0.0 1.6 0.00 0.38 0.15 86 1012.7
20260507132627 12 309 0.0 1.6 0.00 0.38 0.15 87 1012.7
20260507132514 12 242 0.0 0.0 0.00 0.38 0.15 87 1012.6
20260507132431 12 242 0.0 0.0 0.00 0.38 0.15 87 1012.6
20260507132318 12 242 0.0 0.0 0.00 0.38 0.15 87 1012.6
20260507132224 12 242 0.0 0.0 0.00 0.38 0.15 87 1012.6
20260507132110 12 242 0.0 0.0 0.00 0.38 0.15 87 1012.5
20260507132017 12 184 0.0 0.0 0.00 0.38 0.15 87 1012.5
20260507131923 12 184 0.0 0.0 0.00 0.38 0.15 87 1012.4
20260507131814 12 223 0.0 0.0 0.00 0.38 0.15 87 1012.4
20260507131727 12 223 0.0 0.0 0.00 0.38 0.15 87 1012.4
20260507131627 12 169 0.0 0.0 0.00 0.38 0.15 88 1012.1
20260507131613 12 177 0.0 0.0 0.00 0.38 0.15 88 1012.4
20260507131519 12 269 0.0 0.0 0.00 0.38 0.15 88 1012.4
20260507131425 12 274 0.0 0.0 0.00 0.38 0.15 88 1012.4
20260507131316 12 275 0.0 0.0 0.00 0.38 0.15 88 1012.4
20260507131222 12 275 0.0 0.0 0.00 0.38 0.15 88 1012.4
20260507131109 12 275 0.0 0.0 0.00 0.38 0.15 88 1012.4
20260507131022 12 275 0.0 0.0 0.00 0.38 0.15 89 1012.4
20260507130909 12 285 0.0 0.0 0.00 0.38 0.15 88 1012.4
20260507130820 12 285 0.0 0.0 0.00 0.38 0.15 88 1012.4
20260507130727 12 285 0.0 0.0 0.00 0.38 0.15 88 1012.4
20260507130614 12 285 0.0 0.0 0.00 0.38 0.15 88 1012.4
20260507130520 12 280 0.0 0.0 0.00 0.38 0.15 88 1012.4
20260507130433 12 271 0.0 0.0 0.00 0.38 0.15 89 1012.4
20260507130320 12 224 0.0 0.0 0.00 0.38 0.15 89 1012.4
20260507130230 12 200 0.0 0.0 0.00 0.38 0.15 89 1012.4
20260507130116 12 200 0.0 0.0 0.00 0.38 0.15 89 1012.4
20260507130029 12 200 0.0 0.0 0.00 0.38 0.15 89 1012.4
20260507130016 12 200 0.0 0.0 0.00 0.38 0.15 89 1012.0
20260507125915 12 200 0.0 0.0 0.00 0.38 0.15 89 1012.4
20260507125822 12 296 0.0 0.0 0.00 0.38 0.15 89 1012.4
20260507125712 12 296 0.0 0.0 0.00 0.38 0.15 89 1012.4
20260507125619 12 252 0.0 0.0 0.00 0.38 0.15 89 1012.4
20260507125525 12 233 0.0 0.0 0.00 0.38 0.15 89 1012.4
20260507125438 12 233 0.0 0.0 0.00 0.38 0.15 89 1012.5
20260507125324 12 233 0.0 0.0 0.00 0.38 0.15 89 1012.5
20260507125210 12 233 0.0 0.0 0.00 0.38 0.15 89 1012.4
20260507125121 12 265 0.0 0.0 0.00 0.38 0.15 89 1012.4
20260507125034 12 293 0.0 0.0 0.00 0.38 0.15 89 1012.4
20260507124920 12 293 0.0 0.0 0.00 0.38 0.15 89 1012.3
20260507124827 12 293 0.0 0.0 0.00 0.38 0.15 89 1012.3
20260507124713 12 293 0.0 0.0 0.00 0.38 0.15 89 1012.3
20260507124636 12 293 0.0 0.0 0.00 0.38 0.15 89 1012.3
20260507124531 12 293 0.0 0.0 0.00 0.38 0.15 89 1012.3
20260507124510 12 293 0.0 0.0 0.00 0.46 0.15 89 1011.9
20260507124418 12 293 0.0 0.0 0.00 0.46 0.15 89 1012.3
20260507124324 12 306 0.0 0.0 0.00 0.46 0.15 89 1012.3
20260507124210 12 263 0.0 0.0 0.00 0.46 0.15 89 1012.3
20260507124117 12 263 0.0 0.0 0.00 0.46 0.15 89 1012.3
20260507124031 12 263 0.0 0.0 0.00 0.46 0.15 89 1012.3
20260507123940 12 263 0.0 0.0 0.00 0.46 0.15 89 1012.3
20260507123825 12 263 0.0 0.0 0.00 0.46 0.15 90 1012.4
20260507123711 12 263 0.0 0.0 0.00 0.46 0.15 89 1012.4
20260507123618 12 263 0.0 0.0 0.00 0.46 0.15 89 1012.4
20260507123532 12 263 0.0 0.0 0.00 0.46 0.15 89 1012.5
20260507123419 12 263 0.0 0.0 0.00 0.46 0.15 89 1012.5
20260507123326 12 263 0.0 0.0 0.00 0.46 0.15 89 1012.5
20260507123300 12 263 0.0 0.0 0.00 0.46 0.15 89 1012.5
20260507123120 12 263 0.0 0.0 0.00 0.46 0.15 89 1012.5
20260507123043 12 263 0.0 0.0 0.00 0.46 0.15 90 1012.1
20260507123018 12 263 0.0 0.0 0.00 0.46 0.15 90 1012.5
20260507122931 12 263 0.0 0.0 0.00 0.46 0.15 91 1012.4
20260507122810 12 321 0.0 0.0 0.00 0.46 0.15 90 1012.4
20260507122747 12 321 0.0 0.0 0.00 0.46 0.15 90 1012.4
20260507122612 12 321 0.0 0.0 0.00 0.46 0.15 89 1012.5
20260507122519 12 321 0.0 0.0 0.00 0.46 0.15 89 1012.5
20260507122432 12 321 0.0 0.0 0.00 0.46 0.15 89 1012.5
20260507122318 12 233 0.0 0.0 0.00 0.46 0.15 89 1012.4
20260507122244 12 233 0.0 0.0 0.00 0.46 0.15 89 1012.4
20260507122113 12 233 0.0 0.0 0.00 0.46 0.15 89 1012.3
20260507122026 12 233 0.0 0.0 0.00 0.46 0.15 90 1012.3
20260507121932 12 286 0.0 0.0 0.00 0.46 0.15 90 1012.3
20260507121815 12 286 0.0 0.0 0.00 0.46 0.15 90 1012.2
20260507121633 12 286 0.0 0.0 0.00 0.46 0.15 90 1012.2
20260507121611 12 286 0.0 0.0 0.00 0.46 0.15 90 1011.8
20260507121512 12 286 0.0 0.0 0.00 0.46 0.15 90 1012.2
20260507121419 12 286 0.0 1.6 0.00 0.46 0.15 90 1012.2
20260507121325 12 286 0.0 1.6 0.00 0.46 0.15 90 1012.1
20260507121235 12 286 0.0 1.6 0.00 0.46 0.15 90 1012.2
20260507121121 12 286 0.0 1.6 0.00 0.46 0.15 89 1012.2
20260507121027 12 286 0.0 1.6 0.00 0.46 0.15 89 1012.2
20260507120917 12 286 0.0 1.6 0.00 0.46 0.15 90 1012.1
20260507120819 12 337 0.0 1.6 0.00 0.46 0.15 90 1012.0
20260507120732 12 337 0.0 1.6 0.00 0.46 0.15 90 1012.0
20260507120624 12 337 0.0 1.6 0.00 0.46 0.15 90 1011.9
20260507120530 12 307 0.0 1.6 0.00 0.46 0.15 90 1012.0
20260507120442 12 267 0.0 1.6 0.00 0.46 0.15 91 1012.0
20260507120311 12 267 0.0 1.6 0.00 0.46 0.15 91 1012.0
20260507120217 12 327 0.0 1.6 0.00 0.46 0.15 91 1012.0
20260507120130 12 327 0.0 1.6 0.00 0.46 0.15 91 1012.1
20260507120018 12 327 0.0 1.6 0.00 0.46 0.15 90 1012.0
20260507120009 12 327 0.0 1.6 0.00 0.46 0.15 90 1011.7
20260507115922 12 327 0.0 1.6 0.00 0.46 0.15 90 1012.1
20260507115825 12 327 0.0 1.6 0.00 0.46 0.15 91 1012.0
20260507115715 12 279 0.0 0.0 0.00 0.46 0.15 91 1012.1
20260507115622 12 190 0.0 0.0 0.00 0.46 0.15 91 1012.1
20260507115535 12 190 0.0 0.0 0.00 0.46 0.15 91 1012.1
20260507115420 12 190 0.0 0.0 0.00 0.46 0.15 91 1012.1
20260507115326 12 190 0.0 0.0 0.00 0.46 0.15 91 1012.1
20260507115240 12 190 0.0 0.0 0.00 0.46 0.15 92 1012.1
20260507115110 12 190 0.0 0.0 0.00 0.46 0.15 92 1012.1
20260507115037 12 190 0.0 0.0 0.00 0.46 0.15 91 1012.1
20260507114922 12 190 0.0 0.0 0.00 0.46 0.15 91 1012.1
20260507114810 12 190 0.0 0.0 0.00 0.46 0.15 91 1012.2
20260507114722 12 190 0.0 0.0 0.00 0.46 0.15 91 1012.2
20260507114649 12 190 0.0 0.0 0.00 0.46 0.15 91 1012.2
20260507114536 12 190 0.0 0.0 0.00 0.46 0.15 91 1011.8
20260507114517 12 190 0.0 0.0 0.00 0.46 0.15 91 1012.2
20260507114430 12 190 0.0 0.0 0.00 0.46 0.15 91 1012.1
20260507114316 12 190 0.0 0.0 0.00 0.46 0.15 91 1012.1
20260507114244 12 190 0.0 0.0 0.00 0.46 0.15 91 1012.1
20260507114135 12 190 0.0 0.0 0.00 0.46 0.15 91 1012.1
20260507114014 12 190 0.0 0.0 0.00 0.46 0.15 91 1012.0
20260507113931 12 190 0.0 0.0 0.00 0.46 0.15 91 1012.0
20260507113818 12 190 0.0 0.0 0.00 0.46 0.15 92 1011.9
20260507113724 12 190 0.0 0.0 0.00 0.46 0.15 92 1012.0
20260507113610 12 190 0.0 0.0 0.00 0.46 0.15 92 1011.9
20260507113516 12 190 0.0 0.0 0.00 0.46 0.15 92 1011.9
20260507113449 12 190 0.0 0.0 0.00 0.46 0.15 92 1011.9
20260507113338 12 190 0.0 0.0 0.00 0.46 0.15 92 1011.9
20260507113210 12 190 0.0 0.0 0.00 0.46 0.15 92 1011.9
20260507113124 12 190 0.0 0.0 0.00 0.46 0.15 92 1011.9
20260507113016 12 190 0.0 0.0 0.00 0.46 0.15 92 1011.9
20260507112917 12 190 0.0 0.0 0.00 0.46 0.15 92 1011.9
20260507112824 12 190 0.0 0.0 0.00 0.46 0.15 92 1011.9
20260507112714 12 190 0.0 0.0 0.00 0.46 0.15 92 1011.9
20260507112627 12 190 0.0 0.0 0.00 0.46 0.15 92 1011.9
20260507112514 12 190 0.0 0.0 0.00 0.46 0.15 92 1011.8
20260507112440 12 190 0.0 0.0 0.00 0.46 0.15 92 1011.8
20260507112333 12 190 0.0 0.0 0.00 0.46 0.15 92 1011.9
20260507112228 12 190 0.0 0.0 0.00 0.46 0.15 92 1011.9
20260507112127 12 267 0.0 0.0 0.00 0.46 0.15 92 1011.9
20260507112012 12 267 0.0 0.0 0.00 0.46 0.15 92 1011.8
20260507111945 12 272 0.0 0.0 0.00 0.46 0.15 92 1011.8
20260507111810 12 272 0.0 0.0 0.00 0.46 0.15 92 1011.8
20260507111737 12 272 0.0 0.0 0.00 0.46 0.15 92 1011.8
20260507111645 12 272 0.0 0.0 0.00 0.46 0.15 92 1011.8
20260507111556 12 272 0.0 0.0 0.00 0.46 0.15 92 1011.8
20260507111522 12 272 0.0 0.0 0.00 0.46 0.15 92 1011.4
20260507111441 12 272 0.0 0.0 0.00 0.46 0.15 92 1011.8
20260507111310 12 272 0.0 0.0 0.00 0.46 0.15 92 1011.7
20260507111218 12 272 0.0 0.0 0.00 0.46 0.15 92 1011.7
20260507111130 12 272 0.0 0.0 0.00 0.46 0.15 92 1011.7
20260507111036 12 272 0.0 0.0 0.00 0.46 0.15 92 1011.7
20260507110949 12 272 0.0 0.0 0.00 0.46 0.15 92 1011.7
20260507110849 12 272 0.0 0.0 0.00 0.46 0.15 92 1011.7
20260507110715 12 272 0.0 0.0 0.00 0.46 0.15 92 1011.7
20260507110618 12 272 0.0 0.0 0.00 0.46 0.15 92 1011.7
20260507110531 12 272 0.0 0.0 0.00 0.46 0.15 91 1011.7
20260507110418 12 272 0.0 0.0 0.00 0.46 0.15 91 1011.7
20260507110323 12 272 0.0 0.0 0.00 0.46 0.15 91 1011.6
20260507110227 12 272 0.0 3.2 0.00 0.46 0.15 91 1011.6
20260507110136 12 272 0.0 3.2 0.00 0.46 0.15 92 1011.6
20260507110015 12 272 0.0 3.2 0.00 0.46 0.15 91 1011.4
20260507110006 12 272 0.0 3.2 0.00 0.46 0.15 91 1011.0
20260507105921 12 272 0.0 3.2 0.00 0.46 0.15 91 1011.4
20260507105840 12 272 0.0 3.2 0.00 0.46 0.15 92 1011.4
20260507105731 12 272 0.0 3.2 0.00 0.46 0.15 92 1011.3
20260507105647 12 300 0.0 3.2 0.00 0.46 0.15 92 1011.3
20260507105539 12 300 0.0 3.2 0.00 0.46 0.15 92 1011.2
20260507105429 12 300 0.0 3.2 0.00 0.46 0.15 92 1011.2
20260507105335 12 288 0.0 1.6 0.00 0.46 0.15 92 1011.2
20260507105245 12 288 0.0 1.6 0.00 0.46 0.15 92 1011.2
20260507105110 12 288 0.0 1.6 0.00 0.46 0.15 92 1011.2
20260507105014 12 288 0.0 1.6 0.00 0.46 0.15 92 1011.2
20260507104926 12 298 0.0 0.0 0.00 0.46 0.15 92 1011.2
20260507104818 12 298 0.0 0.0 0.00 0.46 0.15 92 1011.2
20260507104721 12 298 0.0 0.0 0.00 0.46 0.15 92 1011.2
20260507104624 12 298 0.0 0.0 0.00 0.46 0.15 92 1011.2
20260507104537 12 298 0.0 0.0 0.00 0.46 0.15 92 1010.9
20260507104524 12 298 0.0 0.0 0.00 0.46 0.15 92 1011.3
20260507104416 12 298 0.0 0.0 0.00 0.46 0.15 92 1011.3
20260507104323 12 298 0.0 0.0 0.00 0.46 0.15 92 1011.3
20260507104230 12 298 0.0 0.0 0.00 0.46 0.15 92 1011.4
20260507104126 12 298 0.0 0.0 0.00 0.46 0.15 92 1011.4
20260507104028 12 298 0.0 0.0 0.00 0.46 0.15 92 1011.3
20260507103915 12 298 0.0 0.0 0.00 0.46 0.15 92 1011.3
20260507103822 12 298 0.0 0.0 0.00 0.46 0.15 92 1011.3
20260507103709 12 298 0.0 0.0 0.00 0.46 0.15 92 1011.3
20260507103642 12 298 0.0 0.0 0.00 0.46 0.15 92 1011.3
20260507103511 12 298 0.0 0.0 0.00 0.46 0.15 92 1011.3
20260507103418 12 298 0.0 0.0 0.00 0.46 0.15 92 1011.3
20260507103321 12 298 0.0 0.0 0.00 0.46 0.15 92 1011.3
20260507103234 12 298 0.0 0.0 0.00 0.46 0.15 92 1011.3
20260507103138 12 298 0.0 0.0 0.00 0.46 0.15 92 1011.4
20260507103050 12 298 0.0 0.0 0.00 0.46 0.15 92 1011.0
20260507103013 12 298 0.0 0.0 0.00 0.46 0.15 92 1011.5
20260507102947 12 298 0.0 0.0 0.00 0.46 0.15 93 1011.6
20260507102845 12 298 0.0 0.0 0.00 0.46 0.15 93 1011.6
20260507102740 12 298 0.0 0.0 0.00 0.46 0.15 92 1011.6
20260507102626 12 298 0.0 0.0 0.00 0.46 0.15 92 1011.5
20260507102512 12 298 0.0 0.0 0.00 0.46 0.15 92 1011.4
20260507102418 12 298 0.0 0.0 0.00 0.46 0.15 92 1011.4
20260507102331 12 298 0.0 0.0 0.00 0.46 0.15 93 1011.4
20260507102220 12 298 0.0 0.0 0.00 0.46 0.15 93 1011.4
20260507102126 12 298 0.0 0.0 0.00 0.46 0.15 92 1011.4
20260507102013 12 298 0.0 0.0 0.00 0.46 0.15 92 1011.5
20260507101926 12 298 0.0 0.0 0.00 0.46 0.15 92 1011.5
20260507101833 12 298 0.0 0.0 0.00 0.46 0.15 92 1011.6
20260507101723 12 298 0.0 0.0 0.00 0.46 0.15 92 1011.6
20260507101610 12 298 0.0 0.0 0.00 0.46 0.15 92 1011.6
20260507101549 12 298 0.0 0.0 0.00 0.46 0.15 92 1011.1
20260507101517 12 298 0.0 0.0 0.00 0.46 0.15 92 1011.5
20260507101422 12 298 0.0 0.0 0.00 0.46 0.15 92 1011.5
20260507101335 12 298 0.0 0.0 0.00 0.46 0.15 92 1011.5
20260507101241 12 298 0.0 0.0 0.00 0.46 0.15 92 1011.5
20260507101110 12 298 0.0 0.0 0.00 0.46 0.15 92 1011.4
20260507101016 12 298 0.0 0.0 0.00 0.46 0.15 92 1011.4
20260507100929 12 298 0.0 0.0 0.00 0.46 0.15 92 1011.4
20260507100836 12 298 0.0 0.0 0.00 0.46 0.15 92 1011.4
20260507100722 12 298 0.0 0.0 0.00 0.46 0.15 92 1011.4
20260507100613 12 298 0.0 0.0 0.00 0.46 0.15 92 1011.4
20260507100539 12 298 0.0 0.0 0.00 0.46 0.15 92 1011.4
20260507100430 12 298 0.0 0.0 0.00 0.46 0.15 92 1011.4
20260507100313 12 298 0.0 0.0 0.00 0.46 0.15 92 1011.6
20260507100212 12 298 0.0 0.0 0.00 0.46 0.15 92 1011.6
20260507100118 12 298 0.0 0.0 0.00 0.46 0.15 92 1011.6
20260507100037 12 298 0.0 0.0 0.00 0.46 0.15 92 1011.1
20260507100024 12 298 0.0 0.0 0.00 0.46 0.15 92 1011.6
20260507095917 12 298 0.0 0.0 0.00 0.46 0.15 92 1011.5
20260507095821 12 298 0.0 0.0 0.00 0.46 0.15 92 1011.5
20260507095717 12 298 0.0 0.0 0.00 0.46 0.15 92 1011.4
20260507095650 12 298 0.0 0.0 0.00 0.46 0.15 92 1011.4
20260507095516 12 298 0.0 0.0 0.00 0.46 0.15 91 1011.4
20260507095422 12 298 0.0 1.6 0.00 0.46 0.15 91 1011.4
20260507095312 12 298 0.0 1.6 0.00 0.46 0.15 91 1011.3
20260507095219 12 298 0.0 1.6 0.00 0.46 0.15 91 1011.3
20260507095132 12 298 0.0 1.6 0.00 0.46 0.15 91 1011.2
20260507095018 12 298 0.0 1.6 0.00 0.46 0.15 91 1011.2
20260507094944 12 298 0.0 1.6 0.00 0.46 0.15 91 1011.2
20260507094809 12 298 0.0 1.6 0.00 0.46 0.15 91 1011.2
20260507094726 12 298 0.0 1.6 0.00 0.46 0.15 91 1011.2
20260507094613 12 253 0.0 1.6 0.00 0.46 0.15 91 1011.1
20260507094609 12 253 0.0 1.6 0.00 0.46 0.15 91 1010.6
20260507094519 12 253 0.0 1.6 0.00 0.46 0.15 91 1011.1
20260507094425 12 314 0.0 1.6 0.00 0.46 0.15 91 1011.0
20260507094312 12 314 0.0 1.6 0.00 0.46 0.15 92 1011.0
20260507094229 12 298 0.0 1.6 0.00 0.46 0.15 92 1011.0
20260507094135 12 298 0.0 1.6 0.00 0.46 0.15 92 1010.9
20260507094021 12 277 0.0 0.0 0.00 0.46 0.15 92 1010.9
20260507093927 12 277 0.0 0.0 0.00 0.46 0.15 92 1010.9
20260507093840 12 277 0.0 0.0 0.00 0.46 0.15 92 1011.0
20260507093746 12 277 0.0 0.0 0.00 0.46 0.15 92 1010.9
20260507093611 12 277 0.0 0.0 0.00 0.46 0.15 92 1010.8
20260507093528 12 277 0.0 0.0 0.00 0.46 0.15 92 1010.8
20260507093415 12 277 0.0 0.0 0.00 0.46 0.15 92 1010.7
20260507093321 12 277 0.0 0.0 0.00 0.46 0.15 92 1010.7
20260507093228 12 301 0.0 0.0 0.00 0.46 0.15 92 1010.7
20260507093112 12 301 0.0 0.0 0.00 0.46 0.15 92 1010.8
20260507093031 12 301 0.0 0.0 0.00 0.46 0.15 92 1010.3
20260507093022 12 301 0.0 0.0 0.00 0.46 0.15 92 1010.8
20260507092935 12 301 0.0 0.0 0.00 0.46 0.15 92 1010.9
20260507092821 12 301 0.0 0.0 0.00 0.46 0.15 92 1011.0
20260507092747 12 301 0.0 0.0 0.00 0.46 0.15 92 1011.0
20260507092612 12 302 0.0 0.0 0.00 0.46 0.15 92 1011.3
20260507092525 12 302 0.0 0.0 0.00 0.46 0.15 92 1011.3
20260507092415 12 302 0.0 0.0 0.00 0.46 0.15 92 1011.3
20260507092321 12 302 0.0 0.0 0.00 0.46 0.15 92 1011.3
20260507092228 12 302 0.0 0.0 0.00 0.46 0.15 92 1011.3
20260507092134 12 302 0.0 0.0 0.00 0.46 0.15 92 1011.3
20260507092046 12 302 0.0 0.0 0.00 0.46 0.15 92 1011.3
20260507091912 12 302 0.0 0.0 0.00 0.46 0.15 92 1011.2
20260507091822 12 302 0.0 0.0 0.00 0.46 0.15 92 1011.2
20260507091734 12 302 0.0 0.0 0.00 0.46 0.15 92 1011.2
20260507091621 12 302 0.0 0.0 0.00 0.46 0.15 92 1011.2
20260507091608 12 302 0.0 0.0 0.00 0.46 0.15 92 1010.8
20260507091527 12 302 0.0 0.0 0.00 0.46 0.15 92 1011.3
20260507091413 12 302 0.0 0.0 0.00 0.46 0.15 92 1011.3
20260507091320 12 302 0.0 0.0 0.00 0.46 0.15 92 1011.3
20260507091210 12 302 0.0 0.0 0.00 0.46 0.15 92 1011.2
20260507091122 12 302 0.0 0.0 0.00 0.46 0.15 92 1011.2
20260507091010 12 302 0.0 0.0 0.00 0.46 0.15 92 1011.2
20260507090916 12 302 0.0 0.0 0.00 0.46 0.15 92 1011.2
20260507090849 12 302 0.0 0.0 0.00 0.46 0.15 92 1011.2
20260507090715 12 302 0.0 0.0 0.00 0.46 0.15 92 1011.2
20260507090625 12 302 0.0 0.0 0.00 0.46 0.15 92 1011.2
20260507090510 12 302 0.0 0.0 0.00 0.46 0.15 92 1011.2
20260507090444 12 302 0.0 0.0 0.00 0.46 0.15 92 1011.2
20260507090328 12 302 0.0 0.0 0.00 0.46 0.15 92 1011.2
20260507090214 12 302 0.0 0.0 0.00 0.46 0.15 92 1011.2
20260507090121 12 302 0.0 0.0 0.00 0.46 0.15 92 1011.2
20260507090047 12 302 0.0 0.0 0.00 0.46 0.15 92 1010.7
20260507090011 12 302 0.0 0.0 0.00 0.46 0.15 92 1011.1
20260507085918 12 302 0.0 0.0 0.00 0.46 0.15 92 1011.1
20260507085831 12 302 0.0 0.0 0.00 0.46 0.15 92 1011.1
20260507085738 13 302 0.0 0.0 0.00 0.46 0.15 92 1011.1
20260507085650 12 78 0.0 0.0 0.00 0.46 0.15 92 1011.1
20260507085535 13 67 0.0 0.0 0.00 0.46 0.15 92 1011.0
20260507085425 13 261 0.0 1.6 0.00 0.46 0.15 92 1011.0
20260507085217 13 261 0.0 1.6 0.00 0.46 0.15 92 1011.0
20260507085124 13 261 0.0 1.6 0.00 0.46 0.15 92 1011.0
20260507085010 13 261 0.0 1.6 0.00 0.46 0.15 92 1011.0
20260507084927 13 261 0.0 1.6 0.00 0.46 0.15 92 1011.0
20260507084834 13 261 0.0 1.6 0.00 0.46 0.15 92 1010.9
20260507084719 13 261 0.0 1.6 0.00 0.46 0.15 92 1010.9
20260507084632 13 261 0.0 1.6 0.00 0.46 0.15 92 1010.7
20260507084606 12 261 0.0 1.6 0.00 0.46 0.15 92 1010.3
20260507084517 13 266 0.0 1.6 0.00 0.46 0.15 92 1010.7
20260507084423 13 267 0.0 1.6 0.00 0.46 0.15 92 1010.7
20260507084313 13 267 0.0 1.6 0.00 0.46 0.15 92 1010.6
20260507084219 13 267 0.0 1.6 0.00 0.46 0.15 92 1010.6
20260507084132 13 267 0.0 1.6 0.00 0.46 0.15 93 1010.5
20260507084018 13 267 0.0 0.0 0.00 0.46 0.15 93 1010.5
20260507083924 13 267 0.0 1.6 0.00 0.46 0.15 93 1010.5
20260507083810 13 61 0.0 1.6 0.00 0.46 0.15 93 1010.5
20260507083719 13 61 0.0 1.6 0.00 0.46 0.15 93 1010.5
20260507083653 13 61 0.0 1.6 0.00 0.46 0.15 93 1010.6
20260507083538 13 61 0.0 1.6 0.00 0.46 0.15 93 1010.6
20260507083424 13 61 0.0 1.6 0.00 0.46 0.15 93 1010.6
20260507083337 13 61 0.0 1.6 0.00 0.46 0.15 92 1010.7
20260507083224 13 61 0.0 1.6 0.00 0.46 0.15 92 1010.7
20260507083114 13 23 0.0 1.6 0.00 0.46 0.15 92 1010.7
20260507083039 12 303 0.0 1.6 0.00 0.46 0.15 92 1010.2
20260507083020 13 226 0.0 1.6 0.00 0.46 0.15 92 1010.7
20260507082933 13 200 0.0 0.0 0.00 0.46 0.15 92 1010.6
20260507082817 13 200 0.0 0.0 0.00 0.46 0.15 92 1010.6
20260507082724 13 200 0.0 0.0 0.00 0.46 0.15 92 1010.7
20260507082612 13 200 0.0 0.0 0.00 0.46 0.15 92 1010.8
20260507082522 13 200 0.0 0.0 0.00 0.46 0.15 92 1010.8
20260507082435 13 200 0.0 0.0 0.00 0.46 0.15 92 1010.8
20260507082321 13 200 0.0 0.0 0.00 0.46 0.15 92 1010.8
20260507082228 13 200 0.0 0.0 0.00 0.46 0.15 92 1010.7
20260507082114 13 200 0.0 0.0 0.00 0.46 0.15 92 1010.6
20260507082021 13 200 0.0 0.0 0.00 0.46 0.15 92 1010.6
20260507081912 13 200 0.0 0.0 0.00 0.46 0.15 92 1010.7
20260507081826 13 200 0.0 0.0 0.00 0.46 0.15 92 1010.7
20260507081731 13 200 0.0 1.6 0.00 0.46 0.15 92 1010.8
20260507081617 13 200 0.0 1.6 0.00 0.46 0.15 92 1010.7
20260507081601 12 200 0.0 1.6 0.00 0.46 0.15 92 1010.3
20260507081523 13 200 0.0 1.6 0.00 0.46 0.15 92 1010.7
20260507081413 13 200 0.0 1.6 0.00 0.46 0.15 92 1010.8
20260507081320 13 200 0.0 1.6 0.00 0.46 0.15 92 1010.8
20260507081233 13 200 0.0 1.6 0.00 0.46 0.15 92 1010.8
20260507081119 13 200 0.0 1.6 0.00 0.46 0.15 92 1010.9
20260507081025 13 200 0.0 1.6 0.00 0.46 0.15 92 1010.8
20260507080915 13 209 0.0 1.6 0.00 0.46 0.15 92 1010.8
20260507080821 13 209 0.0 1.6 0.00 0.46 0.15 92 1010.8
20260507080727 13 150 0.0 1.6 0.00 0.46 0.15 92 1010.7
20260507080614 13 150 0.0 1.6 0.00 0.46 0.15 92 1010.7
20260507080527 13 150 0.0 1.6 0.00 0.46 0.15 92 1010.7
20260507080413 13 150 0.0 1.6 0.00 0.46 0.15 92 1010.6
20260507080324 13 137 0.0 1.6 0.00 0.46 0.15 92 1010.6
20260507080230 13 137 0.0 3.2 0.00 0.46 0.15 92 1010.7
20260507080123 13 137 0.0 4.8 0.00 0.46 0.15 92 1010.7
20260507080028 13 137 0.0 4.8 0.00 0.46 0.15 92 1010.8
20260507080005 13 137 0.0 4.8 0.00 0.46 0.15 92 1010.2
20260507075914 13 137 0.0 4.8 0.00 0.46 0.15 92 1010.7
20260507075841 13 193 0.0 4.8 0.00 0.46 0.15 92 1010.7
20260507075710 13 193 0.0 4.8 0.00 0.46 0.15 92 1010.6
20260507075643 13 193 0.0 4.8 0.00 0.46 0.15 92 1010.6
20260507075509 13 193 0.0 4.8 0.00 0.46 0.15 92 1010.6
20260507075415 13 193 0.0 4.8 0.00 0.46 0.15 92 1010.7
20260507075328 13 187 0.0 4.8 0.00 0.46 0.15 92 1010.7
20260507075235 13 262 0.0 0.0 0.00 0.46 0.15 92 1010.7
20260507075125 13 262 0.0 0.0 0.00 0.46 0.15 92 1010.8
20260507075011 13 262 0.0 4.8 0.00 0.46 0.15 92 1010.7
20260507074917 13 262 0.0 4.8 0.00 0.46 0.15 92 1010.7
20260507074824 13 262 0.0 4.8 0.00 0.46 0.15 92 1010.5
20260507074710 13 262 0.0 4.8 0.00 0.46 0.15 92 1010.5
20260507074626 13 267 0.0 4.8 0.00 0.46 0.15 92 1010.5
20260507074512 13 267 0.0 4.8 0.00 0.46 0.15 92 1010.6
20260507074507 13 267 0.0 4.8 0.00 0.46 0.15 92 1010.2
20260507074418 13 267 0.0 4.8 0.00 0.46 0.15 92 1010.6
20260507074325 13 267 0.0 4.8 0.00 0.46 0.15 92 1010.7
20260507074211 13 267 0.0 4.8 0.00 0.46 0.15 92 1010.6
20260507074118 13 267 0.0 1.6 0.00 0.46 0.15 92 1010.6
20260507074034 13 267 0.0 1.6 0.00 0.46 0.15 92 1010.5
20260507073920 13 267 0.0 1.6 0.00 0.46 0.15 92 1010.5
20260507073847 13 267 0.0 1.6 0.00 0.46 0.15 92 1010.5
20260507073712 13 267 0.0 1.6 0.00 0.46 0.15 92 1010.5
20260507073645 13 267 0.0 1.6 0.00 0.46 0.15 92 1010.5
20260507073511 13 313 0.0 1.6 0.00 0.46 0.15 92 1010.4
20260507073421 13 313 0.0 1.6 0.00 0.46 0.15 92 1010.4
20260507073328 13 183 0.0 0.0 0.00 0.46 0.15 92 1010.4
20260507073214 13 183 0.0 0.0 0.00 0.46 0.15 92 1010.3
20260507073127 13 183 0.0 0.0 0.00 0.46 0.15 92 1010.3
20260507073110 13 183 0.0 0.0 0.00 0.46 0.15 92 1009.8
20260507073013 13 183 0.0 0.0 0.00 0.46 0.15 92 1010.2
20260507072940 13 183 0.0 0.0 0.00 0.46 0.15 92 1010.2
20260507072836 13 183 0.0 1.6 0.00 0.46 0.15 92 1010.1
20260507072722 13 183 0.0 1.6 0.00 0.46 0.15 92 1010.1
20260507072609 13 183 0.0 1.6 0.00 0.46 0.15 92 1010.0
20260507072516 13 183 0.0 1.6 0.00 0.46 0.15 92 1010.0
20260507072449 13 177 0.0 1.6 0.00 0.46 0.15 92 1010.0
20260507072315 13 188 0.0 1.6 0.00 0.46 0.15 92 1009.9
20260507072226 13 175 0.0 1.6 0.00 0.46 0.15 92 1009.9
20260507072113 13 55 0.0 1.6 0.00 0.46 0.15 92 1009.9
20260507072047 13 336 0.0 1.6 0.00 0.46 0.15 92 1009.9
20260507071913 13 201 0.0 0.0 0.00 0.46 0.15 92 1009.9
20260507071819 13 201 0.0 0.0 0.00 0.46 0.15 92 1009.9
20260507071710 13 201 0.0 0.0 0.00 0.46 0.15 92 1010.0
20260507071616 13 201 0.0 0.0 0.00 0.46 0.15 92 1010.0
20260507071532 13 201 0.0 0.0 0.00 0.46 0.15 92 1009.6
20260507071522 13 201 0.0 0.0 0.00 0.46 0.15 92 1010.0
20260507071435 13 201 0.0 0.0 0.00 0.46 0.15 92 1009.9
20260507071320 13 201 0.0 0.0 0.00 0.46 0.15 92 1009.9
20260507071227 13 201 0.0 0.0 0.00 0.46 0.15 92 1009.9
20260507071117 13 201 0.0 0.0 0.00 0.46 0.15 92 1010.0
20260507071029 13 201 0.0 0.0 0.00 0.46 0.15 92 1010.0
20260507070917 13 201 0.0 0.0 0.00 0.46 0.15 92 1010.1
20260507070822 13 201 0.0 0.0 0.00 0.46 0.15 92 1010.1
20260507070710 13 201 0.0 0.0 0.00 0.46 0.15 92 1010.0
20260507070616 13 201 0.0 1.6 0.00 0.46 0.15 92 1010.0
20260507070526 13 201 0.0 1.6 0.00 0.46 0.15 92 1009.9
20260507070412 13 201 0.0 1.6 0.00 0.46 0.15 92 1009.8
20260507070325 13 277 0.0 1.6 0.00 0.46 0.15 92 1009.8
20260507070212 14 277 0.0 1.6 0.00 0.46 0.15 92 1009.8
20260507070138 13 277 0.0 1.6 0.00 0.46 0.15 92 1009.8
20260507070030 14 284 0.0 1.6 0.00 0.46 0.15 92 1009.8
20260507070023 13 284 0.0 1.6 0.00 0.46 0.15 92 1009.3
20260507065920 14 284 0.0 1.6 0.00 0.46 0.15 92 1009.8
20260507065826 14 288 0.0 1.6 0.00 0.46 0.15 92 1009.8
20260507065714 14 134 0.0 0.0 0.00 0.46 0.15 92 1009.8
20260507065639 14 215 0.0 0.0 0.00 0.46 0.15 92 1009.8
20260507065531 14 289 0.0 0.0 0.00 0.46 0.15 92 1009.7
20260507065421 14 289 0.0 0.0 0.00 0.46 0.15 92 1009.7
20260507065327 14 289 0.0 0.0 0.00 0.46 0.15 92 1009.7
20260507065215 14 289 0.0 0.0 0.00 0.46 0.15 92 1009.7
20260507065120 14 289 0.0 0.0 0.00 0.46 0.15 92 1009.7
20260507065053 14 289 0.0 0.0 0.00 0.46 0.15 92 1009.8
20260507064919 14 289 0.0 0.0 0.00 0.46 0.15 92 1009.8
20260507064809 14 289 0.0 0.0 0.00 0.46 0.15 92 1009.8
20260507064736 14 289 0.0 0.0 0.00 0.46 0.15 92 1009.8
20260507064628 14 289 0.0 1.6 0.00 0.46 0.15 91 1009.7
20260507064609 14 289 0.0 1.6 0.00 0.46 0.15 91 1009.3
20260507064515 14 289 0.0 1.6 0.00 0.46 0.15 91 1009.9
20260507064421 14 289 0.0 1.6 0.00 0.46 0.15 91 1009.9
20260507064354 14 289 0.0 1.6 0.00 0.46 0.15 92 1010.0
20260507064224 14 289 0.0 1.6 0.00 0.46 0.15 92 1010.0
20260507064111 14 289 0.0 1.6 0.00 0.46 0.15 92 1009.9
20260507064017 14 323 0.0 1.6 0.00 0.46 0.15 91 1009.9
20260507063925 14 256 0.0 1.6 0.00 0.46 0.15 91 1009.9
20260507063810 14 256 0.0 1.6 0.00 0.46 0.15 91 1009.8
20260507063717 14 305 0.0 1.6 0.00 0.46 0.15 91 1009.8
20260507063634 14 355 0.0 1.6 0.00 0.46 0.15 91 1009.7
20260507063519 14 341 0.0 1.6 0.00 0.46 0.15 91 1009.7
20260507063425 15 137 0.0 1.6 0.00 0.46 0.15 91 1009.7
20260507063312 15 137 0.0 1.6 0.00 0.46 0.15 91 1009.9
20260507063226 15 137 0.0 1.6 0.00 0.46 0.15 91 1009.9
20260507063116 15 137 0.0 1.6 0.00 0.46 0.15 92 1009.9
20260507063107 14 137 0.0 1.6 0.00 0.46 0.15 92 1009.5
20260507063022 15 208 0.0 1.6 0.00 0.46 0.15 91 1010.0
20260507062909 15 208 0.0 1.6 0.00 0.46 0.15 91 1010.0
20260507062815 15 163 0.0 1.6 0.00 0.46 0.15 91 1010.0
20260507062722 15 129 0.0 1.6 0.00 0.46 0.15 91 1010.0
20260507062635 15 121 0.0 1.6 0.00 0.46 0.15 91 1010.0
20260507062545 15 259 0.0 1.6 0.00 0.46 0.15 91 1009.9
20260507062410 15 140 0.0 1.6 0.00 0.46 0.15 91 1009.9
20260507062316 15 54 0.0 3.2 0.00 0.46 0.15 91 1009.9
20260507062222 15 204 0.0 3.2 0.00 0.46 0.15 92 1010.0
20260507062135 15 200 0.0 3.2 0.00 0.46 0.15 92 1010.1
20260507062020 15 168 0.0 3.2 0.00 0.46 0.15 92 1010.1
20260507061931 15 196 0.0 6.4 0.00 0.46 0.15 92 1010.1
20260507061816 15 196 0.0 6.4 0.00 0.46 0.15 92 1010.1
20260507061729 15 196 0.0 6.4 0.00 0.46 0.15 92 1010.1
20260507061615 15 214 0.0 6.4 0.00 0.46 0.15 92 1010.1
20260507061603 15 214 0.0 6.4 0.00 0.46 0.15 92 1009.7
20260507061519 15 327 0.0 9.7 0.00 0.46 0.15 92 1010.1
20260507061410 15 147 0.0 9.7 0.00 0.46 0.15 92 1010.2
20260507061315 15 298 0.0 9.7 0.00 0.46 0.15 92 1010.2
20260507061222 15 280 0.0 9.7 0.00 0.46 0.15 92 1010.2
20260507061135 15 285 1.6 9.7 0.00 0.46 0.15 92 1010.1
20260507061020 15 285 1.6 9.7 0.00 0.46 0.15 92 1010.1
20260507060927 15 205 1.6 9.7 0.00 0.46 0.15 92 1010.1
20260507060817 16 134 3.2 9.7 0.00 0.46 0.15 92 1010.1
20260507060723 16 189 1.6 9.7 0.03 0.46 0.15 92 1010.1
20260507060609 16 254 0.0 4.8 0.03 0.46 0.15 92 1010.0
20260507060517 16 254 0.0 4.8 0.03 0.46 0.15 92 1010.0
20260507060429 16 254 0.0 4.8 0.03 0.46 0.15 92 1010.0
20260507060319 16 254 0.0 4.8 0.03 0.46 0.15 92 1010.0
20260507060225 16 254 0.0 9.7 0.03 0.46 0.15 92 1010.0
20260507060111 16 254 0.0 12.9 0.03 0.46 0.15 93 1009.8
20260507060044 16 292 0.0 12.9 0.03 0.46 0.15 93 1009.8
20260507060009 16 256 0.0 12.9 0.03 0.46 0.15 93 1009.4
20260507055926 16 256 0.0 12.9 0.03 0.46 0.15 93 1009.9
20260507055812 16 256 0.0 12.9 0.03 0.46 0.15 93 1009.9
20260507055723 16 265 0.0 12.9 0.03 0.46 0.15 93 1009.9
20260507055609 16 299 0.0 12.9 0.03 0.46 0.15 93 1010.0
20260507055517 16 263 3.2 12.9 0.03 0.46 0.15 93 1010.0
20260507055429 16 40 3.2 12.9 0.03 0.46 0.15 93 1010.0
20260507055335 16 246 1.6 6.4 0.03 0.46 0.15 93 1010.0
20260507055221 16 287 0.0 6.4 0.03 0.46 0.15 93 1010.0
20260507055138 16 22 0.0 6.4 0.03 0.46 0.15 93 1010.1
20260507055043 16 22 0.0 6.4 0.03 0.46 0.15 93 1010.2
20260507054935 16 134 1.6 6.4 0.03 0.46 0.15 93 1010.3
20260507054820 16 134 1.6 6.4 0.03 0.46 0.15 93 1010.3
20260507054726 16 142 1.6 6.4 0.03 0.46 0.15 93 1010.3
20260507054640 16 355 0.0 6.4 0.03 0.46 0.15 93 1010.3
20260507054524 16 219 0.0 6.4 0.03 0.46 0.15 93 1010.2
20260507054501 16 219 0.0 6.4 0.03 0.46 0.15 93 1009.8
20260507054415 16 294 0.0 6.4 0.03 0.46 0.15 93 1010.1
20260507054321 16 215 0.0 6.4 0.03 0.46 0.15 93 1010.1
20260507054227 16 276 0.0 6.4 0.03 0.46 0.15 93 1010.0
20260507054113 16 278 0.0 6.4 0.03 0.46 0.15 93 1009.9
20260507054026 16 319 1.6 6.4 0.03 0.46 0.15 93 1009.9
20260507053916 16 11 1.6 6.4 0.03 0.46 0.15 93 1009.9
20260507053822 16 303 0.0 6.4 0.03 0.46 0.15 93 1009.9
20260507053728 16 318 0.0 6.4 0.03 0.46 0.15 93 1009.9
20260507053614 16 261 0.0 6.4 0.03 0.46 0.15 93 1009.9
20260507053520 17 5 0.0 6.4 0.03 0.46 0.15 94 1009.9
20260507053433 17 270 0.0 6.4 0.03 0.46 0.15 94 1009.8
20260507053324 17 313 1.6 6.4 0.03 0.46 0.15 93 1009.7
20260507053210 17 298 1.6 6.4 0.03 0.46 0.15 94 1009.7
20260507053116 17 273 0.0 6.4 0.03 0.46 0.15 94 1009.7
20260507053052 16 293 0.0 6.4 0.03 0.46 0.15 94 1009.1
20260507053021 17 293 0.0 6.4 0.03 0.46 0.15 94 1009.6
20260507052909 17 304 0.0 6.4 0.05 0.46 0.15 94 1009.6
20260507052827 17 273 0.0 6.4 0.05 0.46 0.15 94 1009.6
20260507052732 17 287 0.0 6.4 0.05 0.46 0.15 94 1009.5
20260507052619 17 290 1.6 6.4 0.05 0.46 0.15 94 1009.5
20260507052526 17 300 1.6 6.4 0.05 0.46 0.15 94 1009.5
20260507052413 17 232 0.0 6.4 0.08 0.46 0.15 94 1009.5
20260507052318 17 27 0.0 6.4 0.08 0.46 0.15 94 1009.5
20260507052209 17 279 0.0 6.4 0.10 0.46 0.15 94 1009.6
20260507052122 17 279 0.0 6.4 0.10 0.46 0.15 94 1009.6
20260507052011 17 279 0.0 6.4 0.13 0.46 0.15 94 1009.6
20260507051916 17 279 0.0 6.4 0.13 0.46 0.15 94 1009.6
20260507051823 17 291 0.0 0.0 0.13 0.46 0.15 94 1009.5
20260507051713 17 292 0.0 0.0 0.13 0.46 0.15 94 1009.4
20260507051619 17 292 0.0 0.0 0.13 0.46 0.15 94 1009.4
20260507051532 17 333 0.0 0.0 0.13 0.46 0.15 94 1009.4
20260507051522 17 333 0.0 0.0 0.13 0.46 0.15 94 1008.9
20260507051438 17 300 0.0 0.0 0.13 0.46 0.15 94 1009.3
20260507051324 17 300 0.0 0.0 0.13 0.46 0.15 94 1009.1
20260507051211 17 300 0.0 0.0 0.13 0.46 0.15 94 1008.7
20260507051128 17 300 0.0 0.0 0.13 0.46 0.15 94 1008.7
20260507051009 17 313 0.0 0.0 0.13 0.46 0.15 94 1008.4
20260507050922 17 314 0.0 0.0 0.13 0.46 0.15 94 1008.4
20260507050828 17 314 0.0 0.0 0.13 0.46 0.15 94 1008.4
20260507050715 17 37 0.0 0.0 0.10 0.43 0.13 94 1008.3
20260507050626 17 37 0.0 0.0 0.10 0.43 0.13 94 1008.3
20260507050513 17 38 0.0 0.0 0.13 0.43 0.13 94 1008.2
20260507050426 17 37 0.0 0.0 0.13 0.43 0.13 94 1008.2
20260507050314 17 37 0.0 0.0 0.13 0.43 0.13 94 1008.1
20260507050219 17 37 0.0 0.0 0.13 0.43 0.13 94 1008.1
20260507050146 17 38 0.0 0.0 0.13 0.43 0.13 94 1008.0
20260507050025 17 37 0.0 0.0 0.13 0.43 0.13 94 1007.6
20260507050015 17 37 0.0 0.0 0.13 0.43 0.13 94 1008.1
20260507045927 17 37 0.0 0.0 0.13 0.43 0.13 94 1008.1
20260507045813 17 37 0.0 0.0 0.13 0.43 0.13 94 1008.1
20260507045720 17 29 0.0 0.0 0.13 0.43 0.13 94 1008.1
20260507045627 17 29 0.0 0.0 0.13 0.43 0.13 94 1008.2
20260507045518 17 29 0.0 0.0 0.13 0.43 0.13 94 1008.3
20260507045431 17 29 0.0 0.0 0.13 0.43 0.13 94 1008.5
20260507045310 17 29 0.0 0.0 0.13 0.43 0.13 94 1008.8
20260507045223 17 29 0.0 0.0 0.13 0.43 0.13 94 1008.8
20260507045109 17 29 0.0 0.0 0.13 0.43 0.13 94 1009.0
20260507045015 17 29 0.0 0.0 0.13 0.43 0.13 94 1009.1
20260507044925 17 29 0.0 0.0 0.13 0.43 0.13 94 1009.1
20260507044812 17 29 0.0 0.0 0.13 0.43 0.13 94 1009.4
20260507044725 17 29 0.0 0.0 0.13 0.43 0.13 94 1009.4
20260507044631 17 29 0.0 0.0 0.13 0.43 0.13 94 1009.6
20260507044605 17 29 0.0 0.0 0.13 0.43 0.13 94 1009.2
20260507044517 17 29 0.0 0.0 0.13 0.43 0.13 94 1009.6
20260507044427 17 29 0.0 0.0 0.13 0.43 0.13 94 1009.6
20260507044314 17 29 0.0 0.0 0.13 0.43 0.13 94 1009.7
20260507044220 17 29 0.0 0.0 0.13 0.43 0.13 94 1009.7
20260507044133 17 29 0.0 0.0 0.13 0.43 0.13 94 1009.8
20260507044020 17 29 0.0 0.0 0.13 0.43 0.13 94 1009.8
20260507043911 17 29 0.0 0.0 0.13 0.43 0.13 94 1009.9
20260507043818 17 29 0.0 0.0 0.13 0.43 0.13 94 1009.9
20260507043751 17 29 0.0 0.0 0.13 0.43 0.13 94 1009.9
20260507043610 17 29 0.0 0.0 0.13 0.43 0.13 94 1009.8
20260507043523 17 29 0.0 0.0 0.13 0.43 0.13 94 1009.8
20260507043429 17 29 0.0 0.0 0.13 0.43 0.13 94 1009.7
20260507043320 17 29 0.0 0.0 0.13 0.43 0.13 94 1009.7
20260507043226 17 29 0.0 0.0 0.13 0.43 0.13 94 1009.7
20260507043140 17 29 0.0 0.0 0.13 0.43 0.13 94 1009.8
20260507043105 17 29 0.0 0.0 0.13 0.43 0.13 94 1009.2
20260507043044 17 29 0.0 0.0 0.13 0.43 0.13 94 1009.7
20260507042910 17 29 0.0 0.0 0.10 0.41 0.10 94 1009.5
20260507042815 17 29 0.0 0.0 0.10 0.41 0.10 94 1009.5
20260507042728 17 29 0.0 0.0 0.13 0.41 0.10 94 1009.5
20260507042618 17 29 0.0 0.0 0.15 0.41 0.10 94 1009.4
20260507042524 17 29 0.0 0.0 0.18 0.41 0.10 94 1009.3
20260507042410 17 29 0.0 0.0 0.20 0.38 0.08 94 1009.5
20260507042318 17 29 0.0 0.0 0.20 0.38 0.08 94 1009.5
20260507042230 17 29 0.0 0.0 0.20 0.36 0.05 94 1009.7
20260507042119 17 29 0.0 0.0 0.20 0.36 0.05 94 1009.7
20260507042026 17 29 0.0 0.0 0.18 0.33 0.03 94 1009.7
20260507041912 17 29 0.0 0.0 0.18 0.33 0.03 94 1009.6
20260507041819 17 29 0.0 0.0 0.18 0.33 0.03 94 1009.6
20260507041732 17 29 0.0 0.0 0.18 0.33 0.03 94 1009.6
20260507041618 17 29 0.0 0.0 0.18 0.33 0.03 94 1009.6
20260507041604 16 29 0.0 0.0 0.18 0.33 0.03 94 1009.1
20260507041528 17 29 0.0 0.0 0.18 0.33 0.03 94 1009.6
20260507041415 17 29 0.0 0.0 0.18 0.33 0.03 94 1009.6
20260507041321 17 29 0.0 0.0 0.18 0.33 0.03 94 1009.6
20260507041234 17 29 0.0 0.0 0.18 0.33 0.03 94 1009.6
20260507041141 17 29 0.0 0.0 0.18 0.33 0.03 94 1009.5
20260507041046 17 29 0.0 0.0 0.18 0.33 0.03 94 1009.4
20260507040923 17 29 0.0 0.0 0.18 0.33 0.03 94 1009.4
20260507040828 17 29 0.0 0.0 0.18 0.33 0.03 94 1009.4
20260507040734 17 29 0.0 0.0 0.18 0.33 0.03 94 1009.4
20260507040619 17 29 0.0 0.0 0.15 0.30 0.00 94 1009.4
20260507040532 17 29 0.0 0.0 0.15 0.30 0.00 94 1009.4
20260507040437 17 29 0.0 0.0 0.15 0.30 0.00 94 1009.4
20260507040329 17 29 0.0 0.0 0.15 0.30 0.00 94 1009.3
20260507040220 17 29 0.0 0.0 0.15 0.30 0.00 94 1009.3
20260507040126 17 29 0.0 0.0 0.15 0.30 0.00 94 1009.3
20260507040012 17 29 0.0 0.0 0.15 0.30 0.00 94 1009.2
20260507035918 17 29 0.0 0.0 0.15 0.30 0.00 94 1009.2
20260507035825 17 29 0.0 0.0 0.15 0.30 0.00 94 1009.1
20260507035742 17 29 0.0 0.0 0.15 0.30 0.00 94 1009.2
20260507035648 17 29 0.0 0.0 0.15 0.30 0.00 94 1009.3
20260507035539 17 29 0.0 0.0 0.15 0.30 0.00 93 1009.4
20260507035444 17 29 0.0 0.0 0.15 0.30 0.00 93 1009.5
20260507035310 17 29 0.0 0.0 0.15 0.30 0.00 93 1009.6
20260507035223 17 29 0.0 0.0 0.15 0.30 0.00 93 1009.6
20260507035109 17 29 0.0 0.0 0.15 0.30 0.00 93 1009.3
20260507035019 17 29 0.0 0.0 0.15 0.30 0.00 94 1009.3
20260507034925 17 29 0.0 0.0 0.15 0.30 0.00 94 1009.2
20260507034811 17 29 0.0 0.0 0.15 0.30 0.00 93 1009.4
20260507034744 17 29 0.0 0.0 0.15 0.30 0.00 93 1009.4
20260507034649 17 29 0.0 0.0 0.15 0.30 0.00 93 1009.5
20260507034549 16 29 0.0 0.0 0.15 0.30 0.00 93 1009.2
20260507034514 17 29 0.0 0.0 0.15 0.30 0.30 93 1009.7
20260507034431 17 29 0.0 0.0 0.15 0.30 0.30 93 1009.7
20260507034317 17 29 0.0 0.0 0.15 0.30 0.30 93 1009.6
20260507034224 17 29 0.0 0.0 0.15 0.30 0.30 93 1009.6
20260507034110 17 29 0.0 0.0 0.15 0.30 0.30 93 1009.7
20260507034017 17 29 0.0 0.0 0.15 0.30 0.30 93 1009.7
20260507033923 17 29 0.0 0.0 0.15 0.30 0.30 93 1009.7
20260507033814 17 29 0.0 0.0 0.15 0.30 0.30 93 1009.7
20260507033727 17 29 0.0 0.0 0.15 0.30 0.30 93 1009.7
20260507033633 17 29 0.0 0.0 0.15 0.30 0.30 93 1009.7
20260507033518 17 29 0.0 0.0 0.15 0.30 0.30 93 1009.7
20260507033432 17 29 0.0 0.0 0.15 0.30 0.30 93 1009.7
20260507033322 17 29 0.0 0.0 0.15 0.30 0.30 93 1009.8
20260507033228 17 29 0.0 0.0 0.15 0.30 0.30 93 1009.8
20260507033115 17 29 0.0 0.0 0.15 0.30 0.30 93 1010.0
20260507033050 16 29 0.0 0.0 0.15 0.30 0.30 93 1009.6
20260507033020 17 29 0.0 0.0 0.15 0.30 0.30 93 1010.0
20260507032926 17 29 0.0 0.0 0.15 0.30 0.30 93 1010.1
20260507032812 16 29 0.0 0.0 0.13 0.28 0.28 93 1010.0
20260507032729 16 29 0.0 0.0 0.10 0.25 0.25 93 1010.0
20260507032615 16 29 0.0 0.0 0.08 0.23 0.23 93 1010.0
20260507032521 16 29 0.0 0.0 0.05 0.20 0.20 93 1010.0
20260507032427 16 29 0.0 0.0 0.03 0.18 0.18 93 1010.0
20260507032314 16 29 0.0 0.0 0.03 0.18 0.18 93 1009.9
20260507032232 16 29 0.0 0.0 0.00 0.15 0.15 93 1009.9
20260507032111 16 29 0.0 0.0 0.00 0.15 0.15 93 1009.7
20260507032044 16 29 0.0 0.0 0.00 0.15 0.15 93 1009.7
20260507031910 16 29 0.0 0.0 0.00 0.15 0.15 93 1009.7
20260507031817 16 29 0.0 0.0 0.00 0.15 0.15 93 1009.7
20260507031730 16 29 0.0 0.0 0.00 0.15 0.15 93 1009.7
20260507031641 16 29 0.0 0.0 0.00 0.15 0.15 93 1009.7
20260507031548 16 29 0.0 0.0 0.00 0.15 0.15 93 1009.2
20260507031526 16 29 0.0 0.0 0.00 0.15 0.15 93 1009.7
20260507031412 16 29 0.0 0.0 0.00 0.15 0.15 93 1009.7
20260507031319 16 29 0.0 0.0 0.00 0.15 0.15 92 1009.7
20260507031232 16 29 0.0 0.0 0.00 0.15 0.15 92 1009.6
20260507031118 16 29 0.0 0.0 0.00 0.15 0.15 92 1009.5
20260507031009 16 29 0.0 0.0 0.00 0.15 0.15 92 1009.4
20260507030916 16 29 0.0 0.0 0.00 0.15 0.15 92 1009.4
20260507030811 16 29 0.0 0.0 0.00 0.15 0.15 92 1009.4
20260507030724 16 29 0.0 0.0 0.00 0.15 0.15 92 1009.4
20260507030631 16 29 0.0 0.0 0.00 0.15 0.15 92 1009.4
20260507030517 16 29 0.0 0.0 0.00 0.15 0.15 92 1009.4
20260507030451 16 29 0.0 0.0 0.00 0.15 0.15 92 1009.4
20260507030309 16 29 0.0 0.0 0.00 0.15 0.15 92 1009.3
20260507030222 16 29 0.0 0.0 0.00 0.15 0.15 92 1009.3
20260507030109 16 29 0.0 0.0 0.00 0.15 0.15 92 1009.1
20260507030054 16 29 0.0 0.0 0.00 0.15 0.15 92 1008.7
20260507030015 16 29 0.0 0.0 0.00 0.15 0.15 92 1009.1
20260507025926 16 29 0.0 0.0 0.00 0.15 0.15 92 1009.1
20260507025839 16 29 0.0 0.0 0.00 0.15 0.15 92 1009.2
20260507025725 16 29 0.0 0.0 0.00 0.15 0.15 92 1009.2
20260507025612 16 29 0.0 0.0 0.00 0.15 0.15 92 1009.4
20260507025518 16 29 0.0 0.0 0.00 0.15 0.15 92 1009.5
20260507025424 16 29 0.0 0.0 0.00 0.15 0.15 92 1009.5
20260507025341 16 29 0.0 0.0 0.00 0.15 0.15 92 1009.5
20260507025227 17 29 0.0 0.0 0.00 0.15 0.15 92 1009.4
20260507025114 16 29 0.0 0.0 0.00 0.15 0.15 92 1009.4
20260507025020 16 29 0.0 0.0 0.00 0.15 0.15 92 1009.4
20260507024933 16 29 0.0 0.0 0.00 0.15 0.15 92 1009.2
20260507024821 16 29 0.0 0.0 0.00 0.15 0.15 92 1009.1
20260507024731 16 29 0.0 0.0 0.00 0.15 0.15 92 1009.2
20260507024643 16 29 0.0 0.0 0.00 0.15 0.15 92 1009.2
20260507024528 16 29 0.0 0.0 0.00 0.15 0.15 92 1009.3
20260507024503 16 29 0.0 0.0 0.00 0.15 0.15 91 1008.8
20260507024434 16 29 0.0 0.0 0.00 0.15 0.15 91 1009.2
20260507024319 16 29 0.0 0.0 0.00 0.15 0.15 91 1009.2
20260507024231 16 29 0.0 0.0 0.00 0.15 0.15 91 1009.3
20260507024123 16 29 0.0 0.0 0.00 0.15 0.15 91 1009.2
20260507024029 16 29 0.0 0.0 0.00 0.15 0.15 91 1009.3
20260507023916 16 29 0.0 0.0 0.00 0.15 0.15 91 1009.3
20260507023822 16 29 0.0 0.0 0.00 0.15 0.15 91 1009.3
20260507023710 16 29 0.0 0.0 0.00 0.15 0.15 91 1009.3
20260507023616 17 29 0.0 0.0 0.00 0.15 0.15 91 1009.2
20260507023533 17 29 0.0 0.0 0.00 0.15 0.15 91 1009.2
20260507023418 17 29 0.0 0.0 0.00 0.15 0.15 91 1009.1
20260507023330 17 29 0.0 0.0 0.00 0.15 0.15 91 1009.1
20260507023216 17 29 0.0 0.0 0.00 0.15 0.15 91 1009.2
20260507023123 17 29 0.0 0.0 0.00 0.15 0.15 91 1009.2
20260507023053 16 29 0.0 0.0 0.00 0.15 0.15 91 1008.8
20260507023010 17 29 0.0 0.0 0.00 0.15 0.15 92 1009.1
20260507022946 17 29 0.0 0.0 0.00 0.15 0.15 92 1009.1
20260507022812 17 29 0.0 0.0 0.00 0.15 0.15 92 1009.1
20260507022719 17 29 0.0 0.0 0.00 0.15 0.15 92 1009.1
20260507022654 17 29 0.0 0.0 0.00 0.15 0.15 92 1009.0
20260507022512 17 29 0.0 0.0 0.00 0.15 0.15 92 1009.0
20260507022425 16 29 0.0 0.0 0.00 0.15 0.15 92 1009.0
20260507022316 16 29 0.0 0.0 0.00 0.15 0.15 92 1009.1
20260507022222 16 29 0.0 0.0 0.00 0.15 0.15 92 1009.1
20260507022155 16 29 0.0 0.0 0.00 0.15 0.15 92 1009.1
20260507022039 16 29 0.0 0.0 0.00 0.15 0.15 92 1009.1
20260507021924 16 29 0.0 0.0 0.00 0.15 0.15 92 1009.1
20260507021811 16 29 0.0 0.0 0.00 0.15 0.15 92 1009.2
20260507021728 16 29 0.0 0.0 0.00 0.15 0.15 91 1009.2
20260507021634 16 29 0.0 0.0 0.00 0.15 0.15 91 1009.2
20260507021550 16 29 0.0 0.0 0.00 0.15 0.15 91 1008.8
20260507021519 16 29 0.0 0.0 0.00 0.15 0.15 91 1009.2
20260507021452 16 29 0.0 0.0 0.00 0.15 0.15 91 1009.2
20260507021317 16 29 0.0 0.0 0.00 0.15 0.15 91 1009.1
20260507021224 16 29 0.0 0.0 0.00 0.15 0.15 91 1009.1
20260507021114 16 29 0.0 0.0 0.00 0.15 0.15 91 1009.0
20260507021021 16 29 0.0 0.0 0.00 0.15 0.15 91 1009.0
20260507020933 16 29 0.0 0.0 0.00 0.15 0.15 91 1009.0
20260507020839 16 29 0.0 0.0 0.00 0.15 0.15 91 1008.9
20260507020748 16 29 0.0 0.0 0.00 0.15 0.15 91 1008.9
20260507020633 16 29 0.0 0.0 0.00 0.15 0.15 91 1008.8
20260507020537 16 29 0.0 0.0 0.00 0.15 0.15 91 1008.7
20260507020435 16 29 0.0 0.0 0.00 0.15 0.15 91 1008.7
20260507020314 16 29 0.0 0.0 0.00 0.15 0.15 91 1008.8
20260507020227 16 29 0.0 0.0 0.00 0.15 0.15 90 1008.8
20260507020134 16 29 0.0 0.0 0.00 0.15 0.15 90 1008.8
20260507020034 16 29 0.0 0.0 0.00 0.15 0.15 90 1008.4
20260507020016 16 29 0.0 0.0 0.00 0.15 0.15 90 1008.8
20260507015949 16 29 0.0 0.0 0.00 0.15 0.15 90 1008.8
20260507015819 16 29 0.0 0.0 0.00 0.15 0.15 90 1008.8
20260507015725 16 29 0.0 0.0 0.00 0.15 0.15 90 1008.8
20260507015611 16 29 0.0 0.0 0.00 0.15 0.15 90 1008.7
20260507015518 17 29 0.0 0.0 0.00 0.15 0.15 90 1008.7
20260507015430 17 29 0.0 0.0 0.00 0.15 0.15 90 1008.7
20260507015317 17 29 0.0 0.0 0.00 0.15 0.15 90 1008.7
20260507015227 17 29 0.0 0.0 0.00 0.15 0.15 90 1008.7
20260507015114 17 29 0.0 0.0 0.00 0.15 0.15 90 1008.9
20260507015026 17 29 0.0 0.0 0.00 0.15 0.15 90 1008.9
20260507014912 17 29 0.0 0.0 0.00 0.15 0.15 90 1008.9
20260507014839 17 29 0.0 0.0 0.00 0.15 0.15 90 1008.9
20260507014737 17 29 0.0 0.0 0.00 0.15 0.15 89 1008.8
20260507014622 17 29 0.0 0.0 0.00 0.15 0.15 89 1008.7
20260507014615 17 29 0.0 0.0 0.00 0.15 0.15 89 1008.2
20260507014525 17 29 0.0 0.0 0.00 0.15 0.15 89 1008.6
20260507014428 17 29 0.0 0.0 0.00 0.15 0.15 89 1008.4
20260507014335 17 29 0.0 0.0 0.00 0.15 0.15 90 1008.4
20260507014227 17 29 0.0 0.0 0.00 0.15 0.15 90 1008.4
20260507014113 17 29 0.0 0.0 0.00 0.15 0.15 90 1008.3
20260507014042 17 29 0.0 0.0 0.00 0.15 0.15 89 1008.3
20260507013934 17 29 0.0 0.0 0.00 0.15 0.15 89 1008.3
20260507013821 17 29 0.0 0.0 0.00 0.15 0.15 89 1008.3
20260507013709 17 29 0.0 0.0 0.00 0.15 0.15 89 1008.4
20260507013634 17 29 0.0 0.0 0.00 0.15 0.15 89 1008.4
20260507013520 17 29 0.0 0.0 0.00 0.15 0.15 89 1008.6
20260507013434 17 29 0.0 0.0 0.00 0.15 0.15 89 1008.6
20260507013340 17 29 0.0 0.0 0.00 0.15 0.15 89 1008.7
20260507013223 17 29 0.0 0.0 0.00 0.15 0.15 89 1008.7
20260507013136 17 29 0.0 0.0 0.00 0.15 0.15 89 1008.7
20260507013058 17 29 0.0 0.0 0.00 0.15 0.15 89 1008.3
20260507013017 17 29 0.0 0.0 0.00 0.15 0.15 89 1008.7
20260507012917 17 29 0.0 0.0 0.00 0.15 0.15 89 1008.7
20260507012830 17 29 0.0 0.0 0.00 0.15 0.15 89 1008.7
20260507012721 17 29 0.0 0.0 0.00 0.15 0.15 89 1008.8
20260507012625 17 29 0.0 0.0 0.00 0.15 0.15 89 1008.8
20260507012525 17 29 0.0 0.0 0.00 0.15 0.15 89 1008.8
20260507012411 17 29 0.0 0.0 0.00 0.15 0.15 89 1008.8
20260507012344 18 29 0.0 0.0 0.00 0.15 0.15 89 1008.8
20260507012249 18 29 0.0 0.0 0.00 0.15 0.15 89 1008.8
20260507012118 18 29 0.0 0.0 0.00 0.15 0.15 89 1008.7
20260507012031 18 29 0.0 0.0 0.00 0.15 0.15 89 1008.7
20260507011930 18 29 0.0 0.0 0.00 0.15 0.15 89 1008.7
20260507011842 18 29 0.0 0.0 0.00 0.15 0.15 89 1008.7
20260507011717 18 29 0.0 0.0 0.00 0.15 0.15 89 1008.9
20260507011620 18 29 0.0 0.0 0.00 0.15 0.15 89 1008.9
20260507011554 18 29 0.0 0.0 0.00 0.15 0.15 89 1008.9
20260507011537 17 29 0.0 0.0 0.00 0.15 0.15 89 1008.5
20260507011416 17 29 0.0 0.0 0.00 0.15 0.15 90 1008.9
20260507011319 17 29 0.0 0.0 0.00 0.15 0.15 90 1008.9
20260507011222 17 29 0.0 0.0 0.00 0.15 0.15 90 1008.9
20260507011129 17 29 0.0 0.0 0.00 0.15 0.15 90 1009.0
20260507011014 17 29 0.0 0.0 0.00 0.15 0.15 90 1009.1
20260507010813 17 29 0.0 0.0 0.00 0.15 0.15 90 1009.1
20260507010740 17 29 0.0 0.0 0.00 0.15 0.15 90 1009.1
20260507010631 17 29 0.0 0.0 0.00 0.15 0.15 90 1009.0
20260507010519 17 29 0.0 0.0 0.00 0.15 0.15 90 1008.9
20260507010424 17 29 0.0 0.0 0.00 0.15 0.15 90 1009.0
20260507010315 17 29 0.0 0.0 0.00 0.15 0.15 90 1009.0
20260507010222 17 29 0.0 0.0 0.00 0.15 0.15 90 1009.0
20260507010129 17 29 0.0 0.0 0.00 0.15 0.15 90 1009.0
20260507010116 17 29 0.0 0.0 0.00 0.15 0.15 90 1008.6
20260507010035 17 29 0.0 0.0 0.00 0.15 0.15 89 1009.1
20260507005921 17 29 0.0 0.0 0.00 0.15 0.15 89 1009.1
20260507005834 17 29 0.0 0.0 0.00 0.15 0.15 89 1009.1
20260507005741 17 29 0.0 0.0 0.00 0.15 0.15 89 1009.1
20260507005611 17 29 0.0 0.0 0.00 0.15 0.15 89 1009.1
20260507005544 17 29 0.0 0.0 0.00 0.15 0.15 89 1009.1
20260507005411 17 29 0.0 0.0 0.00 0.15 0.15 89 1009.1
20260507005316 17 29 0.0 0.0 0.00 0.15 0.15 89 1009.1
20260507005222 17 29 0.0 0.0 0.00 0.15 0.15 89 1009.1
20260507005155 17 29 0.0 0.0 0.00 0.15 0.15 89 1009.1
20260507005027 17 29 0.0 0.0 0.00 0.15 0.15 89 1009.0
20260507004909 17 29 0.0 0.0 0.00 0.15 0.15 89 1008.9
20260507004816 17 29 0.0 0.0 0.00 0.15 0.15 89 1008.9
20260507004729 17 29 0.0 0.0 0.00 0.15 0.15 89 1008.9
20260507004616 17 29 0.0 0.0 0.00 0.15 0.15 89 1009.0
20260507004603 17 29 0.0 0.0 0.00 0.15 0.15 89 1008.6
20260507004519 17 29 0.0 0.0 0.00 0.15 0.15 89 1009.1
20260507004430 17 29 0.0 0.0 0.00 0.15 0.15 89 1009.1
20260507004332 17 29 0.0 0.0 0.00 0.15 0.15 89 1009.0
20260507004225 17 29 0.0 0.0 0.00 0.15 0.15 89 1009.0
20260507004149 18 29 0.0 0.0 0.00 0.15 0.15 88 1009.1
20260507004022 18 29 0.0 0.0 0.00 0.15 0.15 88 1009.1
20260507003909 18 29 0.0 0.0 0.00 0.15 0.15 88 1009.1
20260507003820 18 29 0.0 0.0 0.00 0.15 0.15 88 1009.1
20260507003726 18 29 0.0 0.0 0.00 0.15 0.15 88 1009.0
20260507003612 18 29 0.0 0.0 0.00 0.15 0.15 88 1008.8
20260507003525 18 29 0.0 0.0 0.00 0.15 0.15 88 1008.8
20260507003428 18 29 0.0 0.0 0.00 0.15 0.15 88 1008.7
20260507003310 18 29 0.0 0.0 0.00 0.15 0.15 88 1008.7
20260507003221 18 29 0.0 0.0 0.00 0.15 0.15 88 1008.7
20260507003128 18 29 0.0 0.0 0.00 0.15 0.15 87 1008.8
20260507003031 18 29 0.0 0.0 0.00 0.15 0.15 87 1008.4
20260507003013 18 29 0.0 0.0 0.00 0.15 0.15 87 1008.9
20260507002927 18 29 0.0 0.0 0.00 0.15 0.15 87 1008.9
20260507002828 18 29 0.0 0.0 0.00 0.15 0.15 87 1008.9
20260507002711 18 29 0.0 0.0 0.00 0.15 0.15 87 1008.9
20260507002619 18 29 0.0 0.0 0.00 0.15 0.15 87 1008.9
20260507002533 18 29 0.0 0.0 0.00 0.15 0.15 87 1009.0
20260507002432 18 29 0.0 0.0 0.00 0.15 0.15 87 1009.0
20260507002319 18 29 0.0 0.0 0.00 0.15 0.15 87 1009.0
20260507002222 18 29 0.0 0.0 0.00 0.15 0.15 87 1008.9
20260507002133 18 29 0.0 0.0 0.00 0.15 0.15 87 1008.9
20260507002025 18 29 0.0 0.0 0.00 0.15 0.15 87 1008.9
20260507001929 18 29 0.0 0.0 0.00 0.15 0.15 86 1008.8
20260507001815 18 29 0.0 0.0 0.00 0.15 0.15 86 1008.8
20260507001721 18 29 0.0 0.0 0.00 0.15 0.15 86 1008.7
20260507001631 18 29 0.0 0.0 0.00 0.15 0.15 87 1008.3
20260507001620 18 29 0.0 0.0 0.00 0.15 0.15 86 1008.7
20260507001538 18 29 0.0 0.0 0.00 0.15 0.15 86 1008.7
20260507001439 18 29 0.0 0.0 0.00 0.15 0.15 86 1008.7
20260507001352 19 29 0.0 0.0 0.00 0.15 0.15 86 1008.7
20260507001257 19 29 0.0 0.0 0.00 0.15 0.15 86 1008.7
20260507001121 19 29 0.0 0.0 0.00 0.15 0.15 86 1008.6
20260507001021 19 29 0.0 0.0 0.00 0.15 0.15 86 1008.6
20260507000925 19 29 0.0 0.0 0.00 0.15 0.15 86 1008.6
20260507000815 19 29 0.0 0.0 0.00 0.15 0.15 86 1008.5
20260507000725 19 29 0.0 0.0 0.00 0.15 0.15 86 1008.5
20260507000631 19 29 0.0 0.0 0.00 0.15 0.15 86 1008.5
20260507000543 19 29 0.0 0.0 0.00 0.15 0.15 86 1008.5
20260507000452 19 29 0.0 0.0 0.00 0.15 0.15 85 1008.5
20260507000343 20 29 0.0 0.0 0.00 0.15 0.15 85 1008.5
20260507000227 20 29 0.0 0.0 0.00 0.15 0.15 85 1008.4
20260507000112 20 29 0.0 0.0 0.00 0.15 0.15 85 1008.4
20260507000051 19 29 0.0 0.0 0.00 0.15 0.15 85 1008.0
20260507000029 20 29 0.0 0.0 0.00 0.15 0.15 85 1008.4
20260506235911 20 29 0.0 0.0 0.00 0.15 0.15 85 1008.3
20260506235822 20 29 0.0 0.0 0.00 0.15 0.15 85 1008.3
20260506235738 20 29 0.0 0.0 0.00 0.15 0.15 84 1008.3
20260506235630 20 29 0.0 0.0 0.00 0.15 0.15 84 1008.3
20260506235516 20 29 0.0 0.0 0.00 0.15 0.15 84 1008.3
20260506235424 20 29 0.0 0.0 0.00 0.15 0.15 84 1008.3
20260506235331 20 29 0.0 0.0 0.00 0.15 0.15 84 1008.3
20260506235242 20 29 0.0 0.0 0.00 0.15 0.15 84 1008.2
20260506235126 20 29 0.0 0.0 0.00 0.15 0.15 84 1008.2
20260506235033 20 29 0.0 0.0 0.00 0.15 0.15 84 1008.3
20260506234959 20 29 0.0 0.0 0.00 0.15 0.15 83 1008.2
20260506234825 20 29 0.0 0.0 0.00 0.15 0.15 84 1008.2
20260506234748 20 29 0.0 0.0 0.00 0.15 0.15 84 1008.2
20260506234609 20 29 0.0 0.0 0.00 0.15 0.15 84 1008.3
20260506234522 20 29 0.0 0.0 0.00 0.15 0.15 84 1008.3
20260506234508 20 29 0.0 0.0 0.00 0.15 0.15 84 1007.9
20260506234428 20 29 0.0 0.0 0.00 0.15 0.15 84 1008.3
20260506234312 20 29 0.0 0.0 0.00 0.15 0.15 83 1008.3
20260506234223 20 29 0.0 0.0 0.00 0.15 0.15 83 1008.3
20260506234109 20 29 0.0 0.0 0.00 0.15 0.15 83 1008.4
20260506234039 20 29 0.0 0.0 0.00 0.15 0.15 83 1008.4
20260506233930 20 29 0.0 0.0 0.00 0.15 0.15 83 1008.4
20260506233816 20 36 0.0 0.0 0.00 0.15 0.15 83 1008.4
20260506233729 20 38 0.0 0.0 0.00 0.15 0.15 83 1008.4
20260506233611 20 36 0.0 0.0 0.00 0.15 0.15 83 1008.5
20260506233518 21 59 0.0 0.0 0.00 0.15 0.15 82 1008.5
20260506233451 21 59 0.0 0.0 0.00 0.15 0.15 82 1008.5
20260506233316 21 59 0.0 0.0 0.00 0.15 0.15 82 1008.5
20260506233221 21 48 0.0 0.0 0.00 0.15 0.15 82 1008.5
20260506233123 21 28 0.0 0.0 0.00 0.15 0.15 82 1008.5
20260506233052 20 28 0.0 0.0 0.00 0.15 0.15 82 1008.1
20260506233026 21 28 0.0 0.0 0.00 0.15 0.15 82 1008.6
20260506232934 21 5 0.0 0.0 0.00 0.15 0.15 82 1008.6
20260506232821 21 5 0.0 0.0 0.00 0.15 0.15 82 1008.7
20260506232724 21 5 0.0 0.0 0.00 0.15 0.15 81 1008.7
20260506232611 21 5 0.0 0.0 0.00 0.15 0.15 82 1008.7
20260506232514 21 5 0.0 0.0 0.00 0.15 0.15 81 1008.6
20260506232431 21 5 0.0 0.0 0.00 0.15 0.15 81 1008.6
20260506232319 21 5 0.0 0.0 0.00 0.15 0.15 81 1008.5
20260506232224 21 5 0.0 0.0 0.00 0.15 0.15 81 1008.7
20260506232112 21 5 0.0 0.0 0.00 0.15 0.15 81 1008.7
20260506232018 21 5 0.0 0.0 0.00 0.15 0.15 81 1008.7
20260506231924 21 5 0.0 0.0 0.00 0.15 0.15 81 1008.7
20260506231815 21 5 0.0 0.0 0.00 0.15 0.15 81 1008.6
20260506231726 21 5 0.0 0.0 0.00 0.15 0.15 81 1008.6
20260506231613 21 5 0.0 0.0 0.00 0.15 0.15 80 1008.6
20260506231605 21 5 0.0 0.0 0.00 0.15 0.15 80 1008.1
20260506231519 21 5 0.0 0.0 0.00 0.15 0.15 80 1008.6
20260506231426 21 16 0.0 0.0 0.00 0.15 0.15 80 1008.5
20260506231317 21 38 0.0 0.0 0.00 0.15 0.15 79 1008.5
20260506231225 21 74 0.0 0.0 0.00 0.15 0.15 80 1008.5
20260506231137 21 171 0.0 0.0 0.00 0.15 0.15 81 1008.5
20260506231016 21 233 0.0 0.0 0.00 0.15 0.15 80 1008.5
20260506230923 21 233 0.0 0.0 0.00 0.15 0.15 80 1008.5
20260506230812 21 233 0.0 0.0 0.00 0.15 0.15 79 1008.4
20260506230718 21 225 0.0 0.0 0.00 0.15 0.15 80 1008.4
20260506230624 21 194 0.0 1.6 0.00 0.15 0.15 79 1008.3
20260506230534 21 63 0.0 1.6 0.00 0.15 0.15 79 1008.3
20260506230421 21 63 0.0 1.6 0.00 0.15 0.15 78 1008.3
20260506230342 21 63 0.0 1.6 0.00 0.15 0.15 80 1008.2
20260506230234 21 28 0.0 1.6 0.00 0.15 0.15 79 1008.2
20260506230135 21 43 0.0 1.6 0.00 0.15 0.15 79 1008.0
20260506230043 21 75 0.0 1.6 0.00 0.15 0.15 79 1007.6
20260506230016 21 68 0.0 1.6 0.00 0.15 0.15 78 1008.0
20260506225929 21 59 0.0 1.6 0.00 0.15 0.15 78 1008.0
20260506225811 21 68 0.0 1.6 0.00 0.15 0.15 79 1008.1
20260506225731 22 355 0.0 0.0 0.00 0.15 0.15 79 1008.1
20260506225626 21 355 0.0 0.0 0.00 0.15 0.15 78 1008.1
20260506225513 22 71 0.0 1.6 0.00 0.15 0.15 79 1008.2
20260506225426 22 71 0.0 1.6 0.00 0.15 0.15 80 1008.2
20260506225326 22 269 0.0 4.8 0.00 0.15 0.15 79 1008.2
20260506225212 22 269 0.0 4.8 0.00 0.15 0.15 79 1008.1
20260506225142 22 269 0.0 4.8 0.00 0.15 0.15 79 1008.1
20260506225021 22 269 0.0 4.8 0.00 0.15 0.15 79 1008.1
20260506224911 22 269 0.0 4.8 0.00 0.15 0.15 79 1008.0
20260506224818 22 269 0.0 4.8 0.00 0.15 0.15 79 1008.0
20260506224725 22 269 0.0 4.8 0.00 0.15 0.15 78 1008.0
20260506224658 22 269 1.6 4.8 0.00 0.15 0.15 77 1007.9
20260506224600 21 269 0.0 4.8 0.00 0.15 0.15 77 1007.4
20260506224528 22 269 1.6 4.8 0.00 0.15 0.15 77 1007.9
20260506224415 22 42 0.0 1.6 0.00 0.15 0.15 77 1007.9
20260506224352 22 59 0.0 1.6 0.00 0.15 0.15 77 1007.9
20260506224215 22 31 0.0 1.6 0.00 0.15 0.15 77 1008.0
20260506224121 22 37 0.0 8.0 0.00 0.15 0.15 78 1008.0
20260506224023 22 333 0.0 8.0 0.00 0.15 0.15 77 1008.0
20260506223934 22 325 0.0 8.0 0.00 0.15 0.15 77 1008.1
20260506223814 22 57 0.0 8.0 0.00 0.15 0.15 77 1008.2
20260506223731 22 5 0.0 9.7 0.00 0.15 0.15 77 1008.2
20260506223618 22 5 0.0 9.7 0.00 0.15 0.15 77 1008.1
20260506223514 22 21 0.0 9.7 0.00 0.15 0.15 77 1008.1
20260506223418 22 98 0.0 9.7 0.00 0.15 0.15 77 1008.1
20260506223332 22 298 0.0 9.7 0.00 0.15 0.15 77 1008.2
20260506223218 22 51 0.0 9.7 0.00 0.15 0.15 77 1008.2
20260506223153 22 81 0.0 9.7 0.00 0.15 0.15 77 1008.2
20260506223114 21 11 0.0 9.7 0.00 0.15 0.15 77 1007.8
20260506223035 22 17 1.6 9.7 0.00 0.15 0.15 77 1008.2
20260506222913 22 45 1.6 9.7 0.00 0.15 0.15 77 1008.3
20260506222820 22 28 1.6 9.7 0.00 0.15 0.15 77 1008.3
20260506222723 22 76 1.6 9.7 0.00 0.15 0.15 77 1008.3
20260506222610 22 46 0.0 0.0 0.00 0.15 0.15 77 1008.2
20260506222527 22 47 0.0 0.0 0.00 0.15 0.15 77 1008.2
20260506222414 22 30 0.0 1.6 0.00 0.15 0.15 77 1008.2
20260506222318 22 34 0.0 1.6 0.00 0.15 0.15 77 1008.2
20260506222220 22 37 0.0 1.6 0.00 0.15 0.15 77 1008.2
20260506222130 22 61 0.0 3.2 0.00 0.15 0.15 77 1008.2
20260506222016 22 65 0.0 3.2 0.00 0.15 0.15 77 1008.1
20260506221922 22 5 0.0 3.2 0.00 0.15 0.15 77 1008.1
20260506221809 22 25 0.0 4.8 0.00 0.15 0.15 77 1008.1
20260506221715 22 350 0.0 4.8 0.00 0.15 0.15 77 1008.1
20260506221622 22 74 0.0 4.8 0.00 0.15 0.15 76 1008.1
20260506221535 22 86 0.0 12.9 0.00 0.15 0.15 77 1008.1
20260506221520 21 89 0.0 12.9 0.00 0.15 0.15 77 1007.6
20260506221425 22 73 0.0 12.9 0.00 0.15 0.15 78 1008.1
20260506221325 22 73 0.0 12.9 0.00 0.15 0.15 77 1008.1
20260506221225 22 138 0.0 12.9 0.00 0.15 0.15 76 1008.1
20260506221139 22 43 1.6 12.9 0.00 0.15 0.15 76 1008.1
20260506221024 22 234 0.0 12.9 0.00 0.15 0.15 76 1008.1
20260506220928 22 360 0.0 12.9 0.00 0.15 0.15 77 1008.1